Time,TemperatureF,DewpointF,PressureIn,WindDirection,WindDirectionDegrees,WindSpeedMPH,WindSpeedGustMPH,Humidity,HourlyPrecipIn,Conditions,Clouds,dailyrainin,SoftwareType,DateUTC
2014-01-20 00:01:00,24.3,21.0,29.56,WSW,249,2.0,2.0,87,0.00,,,0.00,Wunderground v.1.15,2014-01-20 05:01:00,
2014-01-20 00:02:00,24.4,21.1,29.55,WSW,252,0.0,2.0,87,0.00,,,0.00,Wunderground v.1.15,2014-01-20 05:02:00,
2014-01-20 00:04:00,24.4,21.1,29.56,SW,228,0.0,2.0,87,0.00,,,0.00,Wunderground v.1.15,2014-01-20 05:04:00,
2014-01-20 00:05:00,24.4,21.4,29.56,WSW,239,0.0,2.0,88,0.00,,,0.00,Wunderground v.1.15,2014-01-20 05:05:00,
2014-01-20 00:08:00,24.3,21.3,29.56,WSW,249,2.0,2.0,88,0.00,,,0.00,Wunderground v.1.15,2014-01-20 05:08:00,
2014-01-20 00:09:00,24.3,21.3,29.56,West,274,1.0,2.0,88,0.00,,,0.00,Wunderground v.1.15,2014-01-20 05:09:00,
2014-01-20 00:11:00,24.4,21.4,29.56,WSW,252,0.0,1.0,88,0.00,,,0.00,Wunderground v.1.15,2014-01-20 05:11:00,
2014-01-20 00:13:00,24.4,21.4,29.56,West,281,1.0,1.0,88,0.00,,,0.00,Wunderground v.1.15,2014-01-20 05:13:00,
2014-01-20 00:14:00,24.4,21.4,29.56,WSW,252,0.0,1.0,88,0.00,,,0.00,Wunderground v.1.15,2014-01-20 05:14:00,
2014-01-20 00:18:00,24.4,21.4,29.56,SW,219,1.0,2.0,88,0.00,,,0.00,Wunderground v.1.15,2014-01-20 05:18:00,
2014-01-20 00:19:00,24.5,21.5,29.56,WSW,252,1.0,2.0,88,0.00,,,0.00,Wunderground v.1.15,2014-01-20 05:19:00,
2014-01-20 00:21:00,24.5,21.5,29.56,WSW,245,1.0,1.0,88,0.00,,,0.00,Wunderground v.1.15,2014-01-20 05:21:00,
2014-01-20 00:22:00,24.5,21.5,29.56,West,280,2.0,2.0,88,0.00,,,0.00,Wunderground v.1.15,2014-01-20 05:22:00,
2014-01-20 00:24:00,24.6,21.3,29.56,SW,231,1.0,2.0,87,0.00,,,0.00,Wunderground v.1.15,2014-01-20 05:24:00,
2014-01-20 00:26:00,24.5,21.5,29.55,SW,231,0.0,2.0,88,0.00,,,0.00,Wunderground v.1.15,2014-01-20 05:26:00,
2014-01-20 00:28:00,24.5,21.5,29.55,SW,222,1.0,2.0,88,0.00,,,0.00,Wunderground v.1.15,2014-01-20 05:28:00,
2014-01-20 00:30:00,24.5,21.5,29.55,SW,228,3.0,3.0,88,0.00,,,0.00,Wunderground v.1.15,2014-01-20 05:30:00,
2014-01-20 00:31:00,24.6,21.6,29.56,WNW,283,2.0,3.0,88,0.00,,,0.00,Wunderground v.1.15,2014-01-20 05:31:00,
2014-01-20 00:32:00,24.6,21.6,29.56,West,270,3.0,3.0,88,0.00,,,0.00,Wunderground v.1.15,2014-01-20 05:32:00,
2014-01-20 00:33:00,24.6,21.3,29.56,WSW,248,1.0,3.0,87,0.00,,,0.00,Wunderground v.1.15,2014-01-20 05:33:00,
2014-01-20 00:34:00,24.6,21.3,29.56,WSW,252,1.0,3.0,87,0.00,,,0.00,Wunderground v.1.15,2014-01-20 05:34:00,
2014-01-20 00:37:00,24.6,21.6,29.55,West,260,1.0,3.0,88,0.00,,,0.00,Wunderground v.1.15,2014-01-20 05:37:00,
2014-01-20 00:38:00,24.6,21.6,29.55,WSW,257,2.0,3.0,88,0.00,,,0.00,Wunderground v.1.15,2014-01-20 05:38:00,
2014-01-20 00:40:00,24.7,21.7,29.55,WSW,249,0.0,1.0,88,0.00,,,0.00,Wunderground v.1.15,2014-01-20 05:40:00,
2014-01-20 00:41:00,24.7,21.7,29.55,SW,228,0.0,1.0,88,0.00,,,0.00,Wunderground v.1.15,2014-01-20 05:41:00,
2014-01-20 00:45:00,24.7,21.4,29.55,SW,236,2.0,2.0,87,0.00,,,0.00,Wunderground v.1.15,2014-01-20 05:45:00,
2014-01-20 00:47:00,24.9,21.6,29.55,WSW,238,0.0,2.0,87,0.00,,,0.00,Wunderground v.1.15,2014-01-20 05:47:00,
2014-01-20 00:48:00,25.0,21.7,29.55,SSW,210,1.0,2.0,87,0.00,,,0.00,Wunderground v.1.15,2014-01-20 05:48:00,
2014-01-20 00:51:00,25.0,21.7,29.55,WSW,238,3.0,3.0,87,0.00,,,0.00,Wunderground v.1.15,2014-01-20 05:51:00,
2014-01-20 00:53:00,25.1,21.8,29.56,SW,219,0.0,3.0,87,0.00,,,0.00,Wunderground v.1.15,2014-01-20 05:53:00,
2014-01-20 00:54:00,25.1,21.8,29.56,WNW,291,2.0,3.0,87,0.00,,,0.00,Wunderground v.1.15,2014-01-20 05:54:00,
2014-01-20 00:56:00,25.2,21.9,29.56,SW,230,2.0,3.0,87,0.00,,,0.00,Wunderground v.1.15,2014-01-20 05:56:00,
2014-01-20 00:59:00,25.3,22.0,29.56,WSW,255,2.0,3.0,87,0.00,,,0.00,Wunderground v.1.15,2014-01-20 05:59:00,
2014-01-20 01:01:00,25.4,22.1,29.56,WSW,252,1.0,1.0,87,0.00,,,0.00,Wunderground v.1.15,2014-01-20 06:01:00,
2014-01-20 01:02:00,25.4,22.1,29.56,WSW,238,3.0,3.0,87,0.00,,,0.00,Wunderground v.1.15,2014-01-20 06:02:00,
2014-01-20 01:08:00,25.7,22.1,29.56,SW,235,2.0,4.0,86,0.00,,,0.00,Wunderground v.1.15,2014-01-20 06:08:00,
2014-01-20 01:11:00,25.8,22.2,29.56,WSW,249,2.0,2.0,86,0.00,,,0.00,Wunderground v.1.15,2014-01-20 06:11:00,
2014-01-20 01:12:00,25.9,22.3,29.56,West,260,2.0,2.0,86,0.00,,,0.00,Wunderground v.1.15,2014-01-20 06:12:00,
2014-01-20 01:14:00,25.9,22.0,29.56,SW,235,3.0,3.0,85,0.00,,,0.00,Wunderground v.1.15,2014-01-20 06:14:00,
2014-01-20 01:15:00,25.9,22.3,29.56,SW,226,0.0,3.0,86,0.00,,,0.00,Wunderground v.1.15,2014-01-20 06:15:00,
2014-01-20 01:16:00,25.9,22.3,29.56,WNW,295,3.0,3.0,86,0.00,,,0.00,Wunderground v.1.15,2014-01-20 06:16:00,
2014-01-20 01:17:00,25.9,22.3,29.56,WSW,254,2.0,3.0,86,0.00,,,0.00,Wunderground v.1.15,2014-01-20 06:17:00,
2014-01-20 01:20:00,26.0,22.4,29.56,SW,231,2.0,3.0,86,0.00,,,0.00,Wunderground v.1.15,2014-01-20 06:20:00,
2014-01-20 01:21:00,26.0,22.4,29.57,WSW,238,0.0,2.0,86,0.00,,,0.00,Wunderground v.1.15,2014-01-20 06:21:00,
2014-01-20 01:22:00,26.0,22.4,29.56,SW,226,1.0,2.0,86,0.00,,,0.00,Wunderground v.1.15,2014-01-20 06:22:00,
2014-01-20 01:25:00,26.1,22.5,29.57,WNW,283,2.0,2.0,86,0.00,,,0.00,Wunderground v.1.15,2014-01-20 06:25:00,
2014-01-20 01:27:00,26.1,22.2,29.57,WSW,238,1.0,2.0,85,0.00,,,0.00,Wunderground v.1.15,2014-01-20 06:27:00,
2014-01-20 01:29:00,26.1,22.5,29.57,SW,226,0.0,2.0,86,0.00,,,0.00,Wunderground v.1.15,2014-01-20 06:29:00,
2014-01-20 01:31:00,26.1,22.5,29.57,West,280,0.0,1.0,86,0.00,,,0.00,Wunderground v.1.15,2014-01-20 06:31:00,
2014-01-20 01:33:00,26.1,22.5,29.57,SSW,211,0.0,1.0,86,0.00,,,0.00,Wunderground v.1.15,2014-01-20 06:33:00,
2014-01-20 01:37:00,26.1,22.5,29.57,SW,228,1.0,2.0,86,0.00,,,0.00,Wunderground v.1.15,2014-01-20 06:37:00,
2014-01-20 01:38:00,26.2,22.6,29.57,SW,236,2.0,2.0,86,0.00,,,0.00,Wunderground v.1.15,2014-01-20 06:38:00,
2014-01-20 01:40:00,26.3,22.7,29.57,WSW,245,0.0,3.0,86,0.00,,,0.00,Wunderground v.1.15,2014-01-20 06:40:00,
2014-01-20 01:41:00,26.3,22.7,29.57,SW,233,0.0,1.0,86,0.00,,,0.00,Wunderground v.1.15,2014-01-20 06:41:00,
2014-01-20 01:42:00,26.3,22.7,29.57,WSW,255,2.0,2.0,86,0.00,,,0.00,Wunderground v.1.15,2014-01-20 06:42:00,
2014-01-20 01:44:00,26.3,22.7,29.57,SW,231,0.0,2.0,86,0.00,,,0.00,Wunderground v.1.15,2014-01-20 06:44:00,
2014-01-20 01:45:00,26.3,22.7,29.57,WSW,241,2.0,2.0,86,0.00,,,0.00,Wunderground v.1.15,2014-01-20 06:45:00,
2014-01-20 01:47:00,26.3,22.7,29.57,SW,224,1.0,2.0,86,0.00,,,0.00,Wunderground v.1.15,2014-01-20 06:47:00,
2014-01-20 01:50:00,26.3,22.7,29.57,West,266,0.0,2.0,86,0.00,,,0.00,Wunderground v.1.15,2014-01-20 06:50:00,
2014-01-20 01:51:00,26.3,22.7,29.57,South,186,1.0,1.0,86,0.00,,,0.00,Wunderground v.1.15,2014-01-20 06:51:00,
2014-01-20 01:53:00,26.4,22.8,29.57,SW,226,1.0,4.0,86,0.00,,,0.00,Wunderground v.1.15,2014-01-20 06:53:00,
2014-01-20 01:54:00,26.4,22.5,29.57,WSW,250,0.0,4.0,85,0.00,,,0.00,Wunderground v.1.15,2014-01-20 06:54:00,
2014-01-20 01:55:00,26.4,22.5,29.57,SW,226,0.0,4.0,85,0.00,,,0.00,Wunderground v.1.15,2014-01-20 06:55:00,
2014-01-20 01:59:00,26.4,22.5,29.57,SSW,208,1.0,4.0,85,0.00,,,0.00,Wunderground v.1.15,2014-01-20 06:59:00,
2014-01-20 02:02:00,26.5,22.9,29.57,SSW,207,1.0,1.0,86,0.00,,,0.00,Wunderground v.1.15,2014-01-20 07:02:00,
2014-01-20 02:04:00,26.5,22.6,29.57,West,277,1.0,3.0,85,0.00,,,0.00,Wunderground v.1.15,2014-01-20 07:04:00,
2014-01-20 02:07:00,26.6,22.7,29.57,SW,226,1.0,4.0,85,0.00,,,0.00,Wunderground v.1.15,2014-01-20 07:07:00,
2014-01-20 02:09:00,26.6,22.7,29.58,SW,231,1.0,4.0,85,0.00,,,0.00,Wunderground v.1.15,2014-01-20 07:09:00,
2014-01-20 02:12:00,26.7,22.8,29.57,SW,228,0.0,7.0,85,0.00,,,0.00,Wunderground v.1.15,2014-01-20 07:12:00,
2014-01-20 02:14:00,26.8,22.9,29.58,WSW,256,1.0,7.0,85,0.00,,,0.00,Wunderground v.1.15,2014-01-20 07:14:00,
2014-01-20 02:17:00,26.8,22.9,29.58,WSW,246,2.0,8.0,85,0.00,,,0.00,Wunderground v.1.15,2014-01-20 07:17:00,
2014-01-20 02:18:00,26.8,22.9,29.58,WSW,257,2.0,8.0,85,0.00,,,0.00,Wunderground v.1.15,2014-01-20 07:18:00,
2014-01-20 02:19:00,26.9,23.0,29.57,SW,235,0.0,8.0,85,0.00,,,0.00,Wunderground v.1.15,2014-01-20 07:19:00,
2014-01-20 02:22:00,26.9,23.0,29.58,SW,231,4.0,4.0,85,0.00,,,0.00,Wunderground v.1.15,2014-01-20 07:22:00,
2014-01-20 02:23:00,26.9,23.0,29.58,WSW,249,4.0,10.0,85,0.00,,,0.00,Wunderground v.1.15,2014-01-20 07:23:00,
2014-01-20 02:25:00,27.0,23.1,29.58,West,270,1.0,10.0,85,0.00,,,0.00,Wunderground v.1.15,2014-01-20 07:25:00,
2014-01-20 02:27:00,27.0,23.1,29.58,SW,235,2.0,10.0,85,0.00,,,0.00,Wunderground v.1.15,2014-01-20 07:27:00,
2014-01-20 02:28:00,27.1,23.2,29.58,West,260,2.0,10.0,85,0.00,,,0.00,Wunderground v.1.15,2014-01-20 07:28:00,
2014-01-20 02:29:00,27.1,23.2,29.58,South,187,0.0,10.0,85,0.00,,,0.00,Wunderground v.1.15,2014-01-20 07:29:00,
2014-01-20 02:30:00,27.1,22.9,29.58,West,277,3.0,10.0,84,0.00,,,0.00,Wunderground v.1.15,2014-01-20 07:30:00,
2014-01-20 02:32:00,27.1,22.9,29.58,WSW,255,2.0,7.0,84,0.00,,,0.00,Wunderground v.1.15,2014-01-20 07:32:00,
2014-01-20 02:33:00,27.2,23.0,29.58,SW,231,1.0,7.0,84,0.00,,,0.00,Wunderground v.1.15,2014-01-20 07:33:00,
2014-01-20 02:34:00,27.2,23.0,29.58,SW,226,1.0,7.0,84,0.00,,,0.00,Wunderground v.1.15,2014-01-20 07:34:00,
2014-01-20 02:35:00,27.2,23.0,29.58,SSW,195,2.0,7.0,84,0.00,,,0.00,Wunderground v.1.15,2014-01-20 07:35:00,
2014-01-20 02:37:00,27.2,23.0,29.58,SW,232,0.0,7.0,84,0.00,,,0.00,Wunderground v.1.15,2014-01-20 07:37:00,
2014-01-20 02:39:00,27.2,23.3,29.58,WSW,237,1.0,7.0,85,0.00,,,0.00,Wunderground v.1.15,2014-01-20 07:39:00,
2014-01-20 02:40:00,27.2,23.0,29.58,WSW,257,2.0,7.0,84,0.00,,,0.00,Wunderground v.1.15,2014-01-20 07:40:00,
2014-01-20 02:42:00,27.2,23.3,29.58,WSW,243,0.0,2.0,85,0.00,,,0.00,Wunderground v.1.15,2014-01-20 07:42:00,
2014-01-20 02:43:00,27.2,23.3,29.58,WSW,257,1.0,2.0,85,0.00,,,0.00,Wunderground v.1.15,2014-01-20 07:43:00,
2014-01-20 02:44:00,27.2,23.3,29.58,WSW,243,2.0,4.0,85,0.00,,,0.00,Wunderground v.1.15,2014-01-20 07:44:00,
2014-01-20 02:45:00,27.1,23.2,29.58,West,277,3.0,7.0,85,0.00,,,0.00,Wunderground v.1.15,2014-01-20 07:45:00,
2014-01-20 02:47:00,27.2,23.3,29.58,West,259,1.0,7.0,85,0.00,,,0.00,Wunderground v.1.15,2014-01-20 07:47:00,
2014-01-20 02:48:00,27.2,23.3,29.59,WSW,249,4.0,7.0,85,0.00,,,0.00,Wunderground v.1.15,2014-01-20 07:48:00,
2014-01-20 02:49:00,27.2,23.3,29.58,SW,231,0.0,7.0,85,0.00,,,0.00,Wunderground v.1.15,2014-01-20 07:49:00,
2014-01-20 02:50:00,27.2,23.3,29.58,West,267,1.0,7.0,85,0.00,,,0.00,Wunderground v.1.15,2014-01-20 07:50:00,
2014-01-20 02:51:00,27.2,23.3,29.58,WSW,242,2.0,2.0,85,0.00,,,0.00,Wunderground v.1.15,2014-01-20 07:51:00,
2014-01-20 02:52:00,27.2,23.3,29.59,SSW,198,1.0,4.0,85,0.00,,,0.00,Wunderground v.1.15,2014-01-20 07:52:00,
2014-01-20 02:53:00,27.2,23.3,29.58,SW,232,0.0,4.0,85,0.00,,,0.00,Wunderground v.1.15,2014-01-20 07:53:00,
2014-01-20 02:54:00,27.2,23.3,29.58,SW,224,1.0,4.0,85,0.00,,,0.00,Wunderground v.1.15,2014-01-20 07:54:00,
2014-01-20 02:55:00,27.2,23.3,29.58,WSW,252,3.0,4.0,85,0.00,,,0.00,Wunderground v.1.15,2014-01-20 07:55:00,
2014-01-20 02:56:00,27.2,23.0,29.58,West,263,6.0,7.0,84,0.00,,,0.00,Wunderground v.1.15,2014-01-20 07:56:00,
2014-01-20 02:57:00,27.3,23.1,29.58,WNW,287,1.0,7.0,84,0.00,,,0.00,Wunderground v.1.15,2014-01-20 07:57:00,
2014-01-20 02:58:00,27.3,23.1,29.59,SW,228,1.0,7.0,84,0.00,,,0.00,Wunderground v.1.15,2014-01-20 07:58:00,
2014-01-20 02:59:00,27.3,23.1,29.58,WSW,238,2.0,7.0,84,0.00,,,0.00,Wunderground v.1.15,2014-01-20 07:59:00,
2014-01-20 03:01:00,27.4,23.2,29.58,SW,226,1.0,3.0,84,0.00,,,0.00,Wunderground v.1.15,2014-01-20 08:01:00,
2014-01-20 03:02:00,27.3,23.1,29.58,WSW,249,2.0,3.0,84,0.00,,,0.00,Wunderground v.1.15,2014-01-20 08:02:00,
2014-01-20 03:03:00,27.3,23.4,29.58,WSW,246,0.0,3.0,85,0.00,,,0.00,Wunderground v.1.15,2014-01-20 08:03:00,
2014-01-20 03:05:00,27.3,23.4,29.58,WSW,255,3.0,5.0,85,0.00,,,0.00,Wunderground v.1.15,2014-01-20 08:05:00,
2014-01-20 03:06:00,27.3,23.4,29.58,WSW,253,0.0,5.0,85,0.00,,,0.00,Wunderground v.1.15,2014-01-20 08:06:00,
2014-01-20 03:07:00,27.3,23.4,29.58,WSW,253,0.0,5.0,85,0.00,,,0.00,Wunderground v.1.15,2014-01-20 08:07:00,
2014-01-20 03:08:00,27.3,23.4,29.58,SSW,200,0.0,5.0,85,0.00,,,0.00,Wunderground v.1.15,2014-01-20 08:08:00,
2014-01-20 03:10:00,27.3,23.4,29.58,SSW,204,1.0,2.0,85,0.00,,,0.00,Wunderground v.1.15,2014-01-20 08:10:00,
2014-01-20 03:12:00,27.3,23.4,29.58,WSW,241,0.0,3.0,85,0.00,,,0.00,Wunderground v.1.15,2014-01-20 08:12:00,
2014-01-20 03:13:00,27.4,23.5,29.58,West,260,2.0,6.0,85,0.00,,,0.00,Wunderground v.1.15,2014-01-20 08:13:00,
2014-01-20 03:14:00,27.3,23.4,29.58,WSW,245,2.0,6.0,85,0.00,,,0.00,Wunderground v.1.15,2014-01-20 08:14:00,
2014-01-20 03:15:00,27.4,23.5,29.58,SW,228,1.0,7.0,85,0.00,,,0.00,Wunderground v.1.15,2014-01-20 08:15:00,
2014-01-20 03:17:00,27.4,23.5,29.58,SW,226,0.0,7.0,85,0.00,,,0.00,Wunderground v.1.15,2014-01-20 08:17:00,
2014-01-20 03:18:00,27.4,23.5,29.58,WSW,249,2.0,7.0,85,0.00,,,0.00,Wunderground v.1.15,2014-01-20 08:18:00,
2014-01-20 03:19:00,27.5,23.6,29.58,SW,228,0.0,7.0,85,0.00,,,0.00,Wunderground v.1.15,2014-01-20 08:19:00,
2014-01-20 03:21:00,27.4,23.5,29.58,West,262,4.0,6.0,85,0.00,,,0.00,Wunderground v.1.15,2014-01-20 08:21:00,
2014-01-20 03:22:00,27.5,23.6,29.58,West,269,2.0,6.0,85,0.00,,,0.00,Wunderground v.1.15,2014-01-20 08:22:00,
2014-01-20 03:23:00,27.5,23.6,29.58,SSW,197,0.0,6.0,85,0.00,,,0.00,Wunderground v.1.15,2014-01-20 08:23:00,
2014-01-20 03:24:00,27.5,23.6,29.58,SW,231,0.0,6.0,85,0.00,,,0.00,Wunderground v.1.15,2014-01-20 08:24:00,
2014-01-20 03:26:00,27.5,23.6,29.58,SSW,193,3.0,6.0,85,0.00,,,0.00,Wunderground v.1.15,2014-01-20 08:26:00,
2014-01-20 03:27:00,27.5,23.6,29.58,SW,224,2.0,6.0,85,0.00,,,0.00,Wunderground v.1.15,2014-01-20 08:27:00,
2014-01-20 03:28:00,27.6,23.7,29.58,WSW,241,3.0,7.0,85,0.00,,,0.00,Wunderground v.1.15,2014-01-20 08:28:00,
2014-01-20 03:29:00,27.6,23.7,29.58,SW,221,0.0,7.0,85,0.00,,,0.00,Wunderground v.1.15,2014-01-20 08:29:00,
2014-01-20 03:31:00,27.6,23.7,29.58,WSW,238,0.0,2.0,85,0.00,,,0.00,Wunderground v.1.15,2014-01-20 08:31:00,
2014-01-20 03:32:00,27.6,23.7,29.58,WSW,238,0.0,2.0,85,0.00,,,0.00,Wunderground v.1.15,2014-01-20 08:32:00,
2014-01-20 03:33:00,27.6,23.7,29.58,SW,222,1.0,4.0,85,0.00,,,0.00,Wunderground v.1.15,2014-01-20 08:33:00,
2014-01-20 03:34:00,27.6,23.7,29.58,West,266,1.0,4.0,85,0.00,,,0.00,Wunderground v.1.15,2014-01-20 08:34:00,
2014-01-20 03:35:00,27.7,23.8,29.58,WSW,245,2.0,6.0,85,0.00,,,0.00,Wunderground v.1.15,2014-01-20 08:35:00,
2014-01-20 03:36:00,27.7,23.5,29.59,WSW,258,1.0,6.0,84,0.00,,,0.00,Wunderground v.1.15,2014-01-20 08:36:00,
2014-01-20 03:37:00,27.7,23.5,29.59,SW,215,0.0,6.0,84,0.00,,,0.00,Wunderground v.1.15,2014-01-20 08:37:00,
2014-01-20 03:38:00,27.7,23.5,29.59,WSW,257,1.0,6.0,84,0.00,,,0.00,Wunderground v.1.15,2014-01-20 08:38:00,
2014-01-20 03:39:00,27.7,23.5,29.58,WSW,252,1.0,6.0,84,0.00,,,0.00,Wunderground v.1.15,2014-01-20 08:39:00,
2014-01-20 03:40:00,27.7,23.5,29.58,SSW,204,0.0,1.0,84,0.00,,,0.00,Wunderground v.1.15,2014-01-20 08:40:00,
2014-01-20 03:41:00,27.7,23.8,29.59,WSW,257,1.0,3.0,85,0.00,,,0.00,Wunderground v.1.15,2014-01-20 08:41:00,
2014-01-20 03:43:00,27.7,23.8,29.59,SW,228,2.0,3.0,85,0.00,,,0.00,Wunderground v.1.15,2014-01-20 08:43:00,
2014-01-20 03:44:00,27.7,23.8,29.59,WSW,256,0.0,3.0,85,0.00,,,0.00,Wunderground v.1.15,2014-01-20 08:44:00,
2014-01-20 03:45:00,27.7,23.8,29.59,West,277,0.0,3.0,85,0.00,,,0.00,Wunderground v.1.15,2014-01-20 08:45:00,
2014-01-20 03:46:00,27.7,23.8,29.59,WSW,246,0.0,3.0,85,0.00,,,0.00,Wunderground v.1.15,2014-01-20 08:46:00,
2014-01-20 03:47:00,27.7,23.8,29.59,SW,229,2.0,3.0,85,0.00,,,0.00,Wunderground v.1.15,2014-01-20 08:47:00,
2014-01-20 03:49:00,27.7,23.8,29.59,SSW,210,3.0,4.0,85,0.00,,,0.00,Wunderground v.1.15,2014-01-20 08:49:00,
2014-01-20 03:50:00,27.7,23.5,29.59,West,263,1.0,2.0,84,0.00,,,0.00,Wunderground v.1.15,2014-01-20 08:50:00,
2014-01-20 03:51:00,27.7,23.5,29.59,SW,235,0.0,2.0,84,0.00,,,0.00,Wunderground v.1.15,2014-01-20 08:51:00,
2014-01-20 03:53:00,27.7,23.5,29.59,SW,222,0.0,2.0,84,0.00,,,0.00,Wunderground v.1.15,2014-01-20 08:53:00,
2014-01-20 03:54:00,27.7,23.5,29.59,WSW,257,2.0,2.0,84,0.00,,,0.00,Wunderground v.1.15,2014-01-20 08:54:00,
2014-01-20 03:55:00,27.7,23.5,29.59,WSW,249,1.0,2.0,84,0.00,,,0.00,Wunderground v.1.15,2014-01-20 08:55:00,
2014-01-20 03:56:00,27.7,23.5,29.59,WSW,243,2.0,3.0,84,0.00,,,0.00,Wunderground v.1.15,2014-01-20 08:56:00,
2014-01-20 03:58:00,27.7,23.5,29.59,SSW,212,1.0,5.0,84,0.00,,,0.00,Wunderground v.1.15,2014-01-20 08:58:00,
2014-01-20 03:59:00,27.8,23.6,29.59,WSW,246,1.0,5.0,84,0.00,,,0.00,Wunderground v.1.15,2014-01-20 08:59:00,
2014-01-20 04:01:00,27.8,23.6,29.59,West,262,3.0,3.0,84,0.00,,,0.00,Wunderground v.1.15,2014-01-20 09:01:00,
2014-01-20 04:02:00,27.8,23.6,29.59,WSW,250,1.0,3.0,84,0.00,,,0.00,Wunderground v.1.15,2014-01-20 09:02:00,
2014-01-20 04:03:00,27.8,23.6,29.59,SW,226,0.0,3.0,84,0.00,,,0.00,Wunderground v.1.15,2014-01-20 09:03:00,
2014-01-20 04:05:00,27.8,23.6,29.59,WSW,238,2.0,3.0,84,0.00,,,0.00,Wunderground v.1.15,2014-01-20 09:05:00,
2014-01-20 04:07:00,27.8,23.6,29.59,SSW,207,2.0,4.0,84,0.00,,,0.00,Wunderground v.1.15,2014-01-20 09:07:00,
2014-01-20 04:08:00,27.8,23.6,29.59,SW,236,1.0,4.0,84,0.00,,,0.00,Wunderground v.1.15,2014-01-20 09:08:00,
2014-01-20 04:09:00,27.8,23.6,29.59,SW,228,0.0,4.0,84,0.00,,,0.00,Wunderground v.1.15,2014-01-20 09:09:00,
2014-01-20 04:10:00,27.8,23.6,29.59,West,266,1.0,2.0,84,0.00,,,0.00,Wunderground v.1.15,2014-01-20 09:10:00,
2014-01-20 04:12:00,27.8,23.6,29.59,SSW,211,1.0,3.0,84,0.00,,,0.00,Wunderground v.1.15,2014-01-20 09:12:00,
2014-01-20 04:13:00,27.8,23.6,29.59,SSW,213,0.0,3.0,84,0.00,,,0.00,Wunderground v.1.15,2014-01-20 09:13:00,
2014-01-20 04:14:00,27.8,23.6,29.59,WSW,249,2.0,4.0,84,0.00,,,0.00,Wunderground v.1.15,2014-01-20 09:14:00,
2014-01-20 04:15:00,27.8,23.3,29.59,SW,235,1.0,4.0,83,0.00,,,0.00,Wunderground v.1.15,2014-01-20 09:15:00,
2014-01-20 04:17:00,27.8,23.6,29.59,WSW,255,1.0,4.0,84,0.00,,,0.00,Wunderground v.1.15,2014-01-20 09:17:00,
2014-01-20 04:18:00,27.8,23.6,29.59,WSW,245,1.0,4.0,84,0.00,,,0.00,Wunderground v.1.15,2014-01-20 09:18:00,
2014-01-20 04:19:00,27.8,23.6,29.60,SW,229,0.0,4.0,84,0.00,,,0.00,Wunderground v.1.15,2014-01-20 09:19:00,
2014-01-20 04:20:00,27.7,23.5,29.59,West,259,2.0,3.0,84,0.00,,,0.00,Wunderground v.1.15,2014-01-20 09:20:00,
2014-01-20 04:22:00,27.7,23.5,29.59,SW,229,1.0,3.0,84,0.00,,,0.00,Wunderground v.1.15,2014-01-20 09:22:00,
2014-01-20 04:23:00,27.7,23.5,29.59,WSW,238,0.0,3.0,84,0.00,,,0.00,Wunderground v.1.15,2014-01-20 09:23:00,
2014-01-20 04:24:00,27.7,23.5,29.59,WSW,249,0.0,3.0,84,0.00,,,0.00,Wunderground v.1.15,2014-01-20 09:24:00,
2014-01-20 04:25:00,27.7,23.5,29.59,SSW,211,2.0,3.0,84,0.00,,,0.00,Wunderground v.1.15,2014-01-20 09:25:00,
2014-01-20 04:27:00,27.7,23.5,29.59,SW,232,2.0,4.0,84,0.00,,,0.00,Wunderground v.1.15,2014-01-20 09:27:00,
2014-01-20 04:28:00,27.7,23.5,29.59,SW,232,0.0,4.0,84,0.00,,,0.00,Wunderground v.1.15,2014-01-20 09:28:00,
2014-01-20 04:30:00,27.7,23.5,29.59,SW,232,0.0,1.0,84,0.00,,,0.00,Wunderground v.1.15,2014-01-20 09:30:00,
2014-01-20 04:33:00,27.7,23.8,29.59,SW,226,0.0,3.0,85,0.00,,,0.00,Wunderground v.1.15,2014-01-20 09:33:00,
2014-01-20 04:35:00,27.7,23.8,29.59,SW,224,0.0,3.0,85,0.00,,,0.00,Wunderground v.1.15,2014-01-20 09:35:00,
2014-01-20 04:36:00,27.7,23.8,29.59,WSW,255,0.0,3.0,85,0.00,,,0.00,Wunderground v.1.15,2014-01-20 09:36:00,
2014-01-20 04:38:00,27.6,23.7,29.59,WSW,242,0.0,3.0,85,0.00,,,0.00,Wunderground v.1.15,2014-01-20 09:38:00,
2014-01-20 04:40:00,27.6,23.7,29.59,WSW,257,1.0,1.0,85,0.00,,,0.00,Wunderground v.1.15,2014-01-20 09:40:00,
2014-01-20 04:41:00,27.6,23.7,29.59,South,183,0.0,1.0,85,0.00,,,0.00,Wunderground v.1.15,2014-01-20 09:41:00,
2014-01-20 04:43:00,27.6,23.4,29.59,SW,229,2.0,5.0,84,0.00,,,0.00,Wunderground v.1.15,2014-01-20 09:43:00,
2014-01-20 04:44:00,27.6,23.4,29.59,SSW,211,4.0,7.0,84,0.00,,,0.00,Wunderground v.1.15,2014-01-20 09:44:00,
2014-01-20 04:45:00,27.7,23.5,29.59,West,273,1.0,7.0,84,0.00,,,0.00,Wunderground v.1.15,2014-01-20 09:45:00,
2014-01-20 04:46:00,27.7,23.5,29.59,SW,226,1.0,7.0,84,0.00,,,0.00,Wunderground v.1.15,2014-01-20 09:46:00,
2014-01-20 04:48:00,27.7,23.5,29.59,South,191,3.0,7.0,84,0.00,,,0.00,Wunderground v.1.15,2014-01-20 09:48:00,
2014-01-20 04:49:00,27.7,23.5,29.59,SW,232,0.0,7.0,84,0.00,,,0.00,Wunderground v.1.15,2014-01-20 09:49:00,
2014-01-20 04:50:00,27.7,23.5,29.59,SW,229,1.0,2.0,84,0.00,,,0.00,Wunderground v.1.15,2014-01-20 09:50:00,
2014-01-20 04:51:00,27.7,23.5,29.59,WSW,242,1.0,2.0,84,0.00,,,0.00,Wunderground v.1.15,2014-01-20 09:51:00,
2014-01-20 04:53:00,27.7,23.8,29.59,West,262,0.0,3.0,85,0.00,,,0.00,Wunderground v.1.15,2014-01-20 09:53:00,
2014-01-20 04:54:00,27.7,23.8,29.59,SW,214,0.0,3.0,85,0.00,,,0.00,Wunderground v.1.15,2014-01-20 09:54:00,
2014-01-20 04:55:00,27.7,23.8,29.59,SW,226,1.0,5.0,85,0.00,,,0.00,Wunderground v.1.15,2014-01-20 09:55:00,
2014-01-20 04:56:00,27.7,23.8,29.59,SW,224,2.0,5.0,85,0.00,,,0.00,Wunderground v.1.15,2014-01-20 09:56:00,
2014-01-20 04:57:00,27.7,23.8,29.59,WSW,245,2.0,5.0,85,0.00,,,0.00,Wunderground v.1.15,2014-01-20 09:57:00,
2014-01-20 04:58:00,27.7,23.8,29.59,West,267,4.0,7.0,85,0.00,,,0.00,Wunderground v.1.15,2014-01-20 09:58:00,
2014-01-20 05:01:00,27.7,23.5,29.59,WSW,257,0.0,3.0,84,0.00,,,0.00,Wunderground v.1.15,2014-01-20 10:01:00,
2014-01-20 05:02:00,27.8,23.6,29.59,SW,228,0.0,3.0,84,0.00,,,0.00,Wunderground v.1.15,2014-01-20 10:02:00,
2014-01-20 05:04:00,27.7,23.8,29.59,SW,214,0.0,3.0,85,0.00,,,0.00,Wunderground v.1.15,2014-01-20 10:04:00,
2014-01-20 05:07:00,27.7,23.5,29.59,West,260,1.0,5.0,84,0.00,,,0.00,Wunderground v.1.15,2014-01-20 10:07:00,
2014-01-20 05:09:00,27.7,23.8,29.59,West,278,4.0,5.0,85,0.00,,,0.00,Wunderground v.1.15,2014-01-20 10:09:00,
2014-01-20 05:12:00,27.7,23.8,29.59,SSW,195,0.0,3.0,85,0.00,,,0.00,Wunderground v.1.15,2014-01-20 10:12:00,
2014-01-20 05:13:00,27.7,23.8,29.59,SSW,205,1.0,3.0,85,0.00,,,0.00,Wunderground v.1.15,2014-01-20 10:13:00,
2014-01-20 05:14:00,27.7,23.8,29.60,SW,234,0.0,3.0,85,0.00,,,0.00,Wunderground v.1.15,2014-01-20 10:14:00,
2014-01-20 05:17:00,27.7,23.8,29.59,WSW,245,0.0,3.0,85,0.00,,,0.00,Wunderground v.1.15,2014-01-20 10:17:00,
2014-01-20 05:18:00,27.7,23.8,29.59,WSW,245,0.0,3.0,85,0.00,,,0.00,Wunderground v.1.15,2014-01-20 10:18:00,
2014-01-20 05:19:00,27.6,24.0,29.60,SW,229,0.0,3.0,86,0.00,,,0.00,Wunderground v.1.15,2014-01-20 10:19:00,
2014-01-20 05:23:00,27.5,23.9,29.60,SW,229,0.0,2.0,86,0.00,,,0.00,Wunderground v.1.15,2014-01-20 10:23:00,
2014-01-20 05:24:00,27.5,23.9,29.60,SW,224,0.0,2.0,86,0.00,,,0.00,Wunderground v.1.15,2014-01-20 10:24:00,
2014-01-20 05:28:00,27.5,23.9,29.60,SW,231,1.0,2.0,86,0.00,,,0.00,Wunderground v.1.15,2014-01-20 10:28:00,
2014-01-20 05:29:00,27.4,23.8,29.60,SW,228,2.0,3.0,86,0.00,,,0.00,Wunderground v.1.15,2014-01-20 10:29:00,
2014-01-20 05:30:00,27.4,23.8,29.60,SW,222,1.0,3.0,86,0.00,,,0.00,Wunderground v.1.15,2014-01-20 10:30:00,
2014-01-20 05:33:00,27.3,23.7,29.60,West,271,0.0,1.0,86,0.00,,,0.00,Wunderground v.1.15,2014-01-20 10:33:00,
2014-01-20 05:34:00,27.3,23.7,29.60,West,264,1.0,1.0,86,0.00,,,0.00,Wunderground v.1.15,2014-01-20 10:34:00,
2014-01-20 05:35:00,27.3,23.7,29.60,West,264,0.0,1.0,86,0.00,,,0.00,Wunderground v.1.15,2014-01-20 10:35:00,
2014-01-20 05:38:00,27.3,23.7,29.60,WSW,249,0.0,3.0,86,0.00,,,0.00,Wunderground v.1.15,2014-01-20 10:38:00,
2014-01-20 05:39:00,27.2,23.6,29.60,WSW,249,0.0,3.0,86,0.00,,,0.00,Wunderground v.1.15,2014-01-20 10:39:00,
2014-01-20 05:40:00,27.2,23.6,29.60,WSW,257,0.0,0.0,86,0.00,,,0.00,Wunderground v.1.15,2014-01-20 10:40:00,
2014-01-20 05:41:00,27.2,23.6,29.60,WSW,257,0.0,1.0,86,0.00,,,0.00,Wunderground v.1.15,2014-01-20 10:41:00,
2014-01-20 05:43:00,27.1,23.7,29.60,WSW,246,0.0,1.0,87,0.00,,,0.00,Wunderground v.1.15,2014-01-20 10:43:00,
2014-01-20 05:44:00,27.1,23.7,29.60,WSW,255,0.0,1.0,87,0.00,,,0.00,Wunderground v.1.15,2014-01-20 10:44:00,
2014-01-20 05:45:00,27.1,23.7,29.60,WSW,250,0.0,1.0,87,0.00,,,0.00,Wunderground v.1.15,2014-01-20 10:45:00,
2014-01-20 05:46:00,27.1,23.7,29.60,WSW,246,0.0,1.0,87,0.00,,,0.00,Wunderground v.1.15,2014-01-20 10:46:00,
2014-01-20 05:48:00,27.1,23.7,29.60,WSW,243,0.0,1.0,87,0.00,,,0.00,Wunderground v.1.15,2014-01-20 10:48:00,
2014-01-20 05:49:00,27.1,23.7,29.60,WSW,244,0.0,1.0,87,0.00,,,0.00,Wunderground v.1.15,2014-01-20 10:49:00,
2014-01-20 05:50:00,27.1,23.7,29.60,SW,214,1.0,1.0,87,0.00,,,0.00,Wunderground v.1.15,2014-01-20 10:50:00,
2014-01-20 05:51:00,27.1,23.7,29.60,SW,226,0.0,1.0,87,0.00,,,0.00,Wunderground v.1.15,2014-01-20 10:51:00,
2014-01-20 05:53:00,27.0,23.6,29.60,SW,224,0.0,1.0,87,0.00,,,0.00,Wunderground v.1.15,2014-01-20 10:53:00,
2014-01-20 05:54:00,27.0,23.6,29.60,SW,224,0.0,1.0,87,0.00,,,0.00,Wunderground v.1.15,2014-01-20 10:54:00,
2014-01-20 05:55:00,27.0,23.6,29.60,South,191,2.0,2.0,87,0.00,,,0.00,Wunderground v.1.15,2014-01-20 10:55:00,
2014-01-20 05:58:00,26.9,23.8,29.60,SW,221,1.0,2.0,88,0.00,,,0.00,Wunderground v.1.15,2014-01-20 10:58:00,
2014-01-20 05:59:00,26.9,23.8,29.61,SW,226,0.0,2.0,88,0.00,,,0.00,Wunderground v.1.15,2014-01-20 10:59:00,
2014-01-20 06:02:00,26.8,23.7,29.61,WSW,246,0.0,1.0,88,0.00,,,0.00,Wunderground v.1.15,2014-01-20 11:02:00,
2014-01-20 06:03:00,26.8,23.7,29.61,WSW,246,0.0,1.0,88,0.00,,,0.00,Wunderground v.1.15,2014-01-20 11:03:00,
2014-01-20 06:04:00,26.7,23.6,29.61,WSW,237,0.0,1.0,88,0.00,,,0.00,Wunderground v.1.15,2014-01-20 11:04:00,
2014-01-20 06:05:00,26.7,23.6,29.61,West,267,1.0,1.0,88,0.00,,,0.00,Wunderground v.1.15,2014-01-20 11:05:00,
2014-01-20 06:07:00,26.7,23.6,29.61,West,266,1.0,2.0,88,0.00,,,0.00,Wunderground v.1.15,2014-01-20 11:07:00,
2014-01-20 06:08:00,26.6,23.5,29.61,SW,230,1.0,2.0,88,0.00,,,0.00,Wunderground v.1.15,2014-01-20 11:08:00,
2014-01-20 06:09:00,26.6,23.5,29.61,WSW,252,1.0,2.0,88,0.00,,,0.00,Wunderground v.1.15,2014-01-20 11:09:00,
2014-01-20 06:10:00,26.6,23.5,29.61,SW,229,0.0,1.0,88,0.00,,,0.00,Wunderground v.1.15,2014-01-20 11:10:00,
2014-01-20 06:12:00,26.6,23.5,29.61,West,261,3.0,3.0,88,0.00,,,0.00,Wunderground v.1.15,2014-01-20 11:12:00,
2014-01-20 06:14:00,26.5,23.2,29.61,South,183,1.0,4.0,87,0.00,,,0.00,Wunderground v.1.15,2014-01-20 11:14:00,
2014-01-20 06:15:00,26.5,23.4,29.61,WNW,284,2.0,4.0,88,0.00,,,0.00,Wunderground v.1.15,2014-01-20 11:15:00,
2014-01-20 06:17:00,26.5,23.2,29.61,WSW,255,0.0,4.0,87,0.00,,,0.00,Wunderground v.1.15,2014-01-20 11:17:00,
2014-01-20 06:19:00,26.5,23.2,29.61,West,259,1.0,4.0,87,0.00,,,0.00,Wunderground v.1.15,2014-01-20 11:19:00,
2014-01-20 06:20:00,26.5,23.2,29.61,West,263,2.0,3.0,87,0.00,,,0.00,Wunderground v.1.15,2014-01-20 11:20:00,
2014-01-20 06:22:00,26.5,23.2,29.61,SW,215,1.0,6.0,87,0.00,,,0.00,Wunderground v.1.15,2014-01-20 11:22:00,
2014-01-20 06:24:00,26.5,23.2,29.61,WSW,257,0.0,6.0,87,0.00,,,0.00,Wunderground v.1.15,2014-01-20 11:24:00,
2014-01-20 06:25:00,26.5,23.2,29.61,SW,235,1.0,6.0,87,0.00,,,0.00,Wunderground v.1.15,2014-01-20 11:25:00,
2014-01-20 06:29:00,26.5,23.4,29.61,WSW,252,1.0,6.0,88,0.00,,,0.00,Wunderground v.1.15,2014-01-20 11:29:00,
2014-01-20 06:30:00,26.4,23.3,29.61,WSW,255,0.0,1.0,88,0.00,,,0.00,Wunderground v.1.15,2014-01-20 11:30:00,
2014-01-20 06:34:00,26.4,23.3,29.61,SW,224,1.0,1.0,88,0.00,,,0.00,Wunderground v.1.15,2014-01-20 11:34:00,
2014-01-20 06:35:00,26.4,23.3,29.61,SW,221,1.0,2.0,88,0.00,,,0.00,Wunderground v.1.15,2014-01-20 11:35:00,
2014-01-20 06:37:00,26.4,23.3,29.61,WSW,249,0.0,2.0,88,0.00,,,0.00,Wunderground v.1.15,2014-01-20 11:37:00,
2014-01-20 06:39:00,26.4,23.3,29.60,South,188,0.0,2.0,88,0.00,,,0.00,Wunderground v.1.15,2014-01-20 11:39:00,
2014-01-20 06:40:00,26.4,23.3,29.60,West,281,1.0,2.0,88,0.00,,,0.00,Wunderground v.1.15,2014-01-20 11:40:00,
2014-01-20 06:41:00,26.4,23.3,29.60,WNW,283,2.0,2.0,88,0.00,,,0.00,Wunderground v.1.15,2014-01-20 11:41:00,
2014-01-20 06:42:00,26.3,23.2,29.60,WSW,252,1.0,2.0,88,0.00,,,0.00,Wunderground v.1.15,2014-01-20 11:42:00,
2014-01-20 06:44:00,26.4,23.1,29.60,West,260,1.0,4.0,87,0.00,,,0.00,Wunderground v.1.15,2014-01-20 11:44:00,
2014-01-20 06:45:00,26.4,23.1,29.60,SW,221,1.0,4.0,87,0.00,,,0.00,Wunderground v.1.15,2014-01-20 11:45:00,
2014-01-20 06:46:00,26.4,23.1,29.60,SW,228,0.0,4.0,87,0.00,,,0.00,Wunderground v.1.15,2014-01-20 11:46:00,
2014-01-20 06:47:00,26.4,23.1,29.60,WSW,238,1.0,4.0,87,0.00,,,0.00,Wunderground v.1.15,2014-01-20 11:47:00,
2014-01-20 06:49:00,26.4,23.3,29.60,WSW,257,1.0,4.0,88,0.00,,,0.00,Wunderground v.1.15,2014-01-20 11:49:00,
2014-01-20 06:50:00,26.4,23.3,29.60,West,270,1.0,2.0,88,0.00,,,0.00,Wunderground v.1.15,2014-01-20 11:50:00,
2014-01-20 06:51:00,26.4,23.3,29.60,West,280,1.0,2.0,88,0.00,,,0.00,Wunderground v.1.15,2014-01-20 11:51:00,
2014-01-20 06:52:00,26.3,23.0,29.60,WSW,243,0.0,2.0,87,0.00,,,0.00,Wunderground v.1.15,2014-01-20 11:52:00,
2014-01-20 06:54:00,26.4,23.1,29.60,South,191,3.0,3.0,87,0.00,,,0.00,Wunderground v.1.15,2014-01-20 11:54:00,
2014-01-20 06:55:00,26.4,23.1,29.61,West,274,3.0,3.0,87,0.00,,,0.00,Wunderground v.1.15,2014-01-20 11:55:00,
2014-01-20 06:56:00,26.4,23.1,29.61,SW,226,2.0,4.0,87,0.00,,,0.00,Wunderground v.1.15,2014-01-20 11:56:00,
2014-01-20 06:57:00,26.4,23.1,29.61,WSW,255,2.0,4.0,87,0.00,,,0.00,Wunderground v.1.15,2014-01-20 11:57:00,
2014-01-20 06:59:00,26.4,23.1,29.61,WSW,249,0.0,4.0,87,0.00,,,0.00,Wunderground v.1.15,2014-01-20 11:59:00,
2014-01-20 07:01:00,26.4,23.1,29.61,West,269,2.0,2.0,87,0.00,,,0.00,Wunderground v.1.15,2014-01-20 12:01:00,
2014-01-20 07:02:00,26.4,23.1,29.61,West,267,3.0,3.0,87,0.00,,,0.00,Wunderground v.1.15,2014-01-20 12:02:00,
2014-01-20 07:04:00,26.4,23.1,29.61,WSW,255,5.0,5.0,87,0.00,,,0.00,Wunderground v.1.15,2014-01-20 12:04:00,
2014-01-20 07:07:00,26.5,23.2,29.61,West,270,2.0,6.0,87,0.00,,,0.00,Wunderground v.1.15,2014-01-20 12:07:00,
2014-01-20 07:08:00,26.5,23.2,29.61,SW,235,0.0,6.0,87,0.00,,,0.00,Wunderground v.1.15,2014-01-20 12:08:00,
2014-01-20 07:09:00,26.4,23.1,29.61,SW,226,0.0,6.0,87,0.00,,,0.00,Wunderground v.1.15,2014-01-20 12:09:00,
2014-01-20 07:10:00,26.5,23.2,29.61,WSW,249,2.0,2.0,87,0.00,,,0.00,Wunderground v.1.15,2014-01-20 12:10:00,
2014-01-20 07:12:00,26.4,23.1,29.61,West,271,1.0,4.0,87,0.00,,,0.00,Wunderground v.1.15,2014-01-20 12:12:00,
2014-01-20 07:13:00,26.5,23.2,29.61,West,281,3.0,5.0,87,0.00,,,0.00,Wunderground v.1.15,2014-01-20 12:13:00,
2014-01-20 07:14:00,26.5,23.2,29.61,SW,229,4.0,5.0,87,0.00,,,0.00,Wunderground v.1.15,2014-01-20 12:14:00,
2014-01-20 07:15:00,26.5,23.2,29.61,WSW,238,1.0,5.0,87,0.00,,,0.00,Wunderground v.1.15,2014-01-20 12:15:00,
2014-01-20 07:17:00,26.5,23.2,29.61,WSW,238,1.0,5.0,87,0.00,,,0.00,Wunderground v.1.15,2014-01-20 12:17:00,
2014-01-20 07:18:00,26.5,23.2,29.61,WSW,237,0.0,5.0,87,0.00,,,0.00,Wunderground v.1.15,2014-01-20 12:18:00,
2014-01-20 07:19:00,26.5,23.2,29.61,West,269,1.0,5.0,87,0.00,,,0.00,Wunderground v.1.15,2014-01-20 12:19:00,
2014-01-20 07:20:00,26.5,23.2,29.61,WSW,246,2.0,2.0,87,0.00,,,0.00,Wunderground v.1.15,2014-01-20 12:20:00,
2014-01-20 07:23:00,26.5,23.2,29.61,SW,231,1.0,3.0,87,0.00,,,0.00,Wunderground v.1.15,2014-01-20 12:23:00,
2014-01-20 07:24:00,26.5,23.2,29.61,WSW,258,1.0,4.0,87,0.00,,,0.00,Wunderground v.1.15,2014-01-20 12:24:00,
2014-01-20 07:25:00,26.5,23.2,29.61,WSW,258,1.0,4.0,87,0.00,,,0.00,Wunderground v.1.15,2014-01-20 12:25:00,
2014-01-20 07:28:00,26.5,23.2,29.60,WSW,256,1.0,5.0,87,0.00,,,0.00,Wunderground v.1.15,2014-01-20 12:28:00,
2014-01-20 07:30:00,26.6,23.3,29.61,West,266,3.0,3.0,87,0.00,,,0.00,Wunderground v.1.15,2014-01-20 12:30:00,
2014-01-20 07:31:00,26.6,23.3,29.61,WSW,249,0.0,4.0,87,0.00,,,0.00,Wunderground v.1.15,2014-01-20 12:31:00,
2014-01-20 07:33:00,26.6,23.3,29.60,SSW,198,0.0,4.0,87,0.00,,,0.00,Wunderground v.1.15,2014-01-20 12:33:00,
2014-01-20 07:35:00,26.6,23.3,29.60,WSW,249,0.0,4.0,87,0.00,,,0.00,Wunderground v.1.15,2014-01-20 12:35:00,
2014-01-20 07:37:00,26.6,23.3,29.60,WSW,252,3.0,4.0,87,0.00,,,0.00,Wunderground v.1.15,2014-01-20 12:37:00,
2014-01-20 07:38:00,26.6,23.3,29.60,SW,235,1.0,4.0,87,0.00,,,0.00,Wunderground v.1.15,2014-01-20 12:38:00,
2014-01-20 07:39:00,26.6,23.3,29.60,West,276,3.0,5.0,87,0.00,,,0.00,Wunderground v.1.15,2014-01-20 12:39:00,
2014-01-20 07:40:00,26.6,23.3,29.60,West,259,2.0,2.0,87,0.00,,,0.00,Wunderground v.1.15,2014-01-20 12:40:00,
2014-01-20 07:42:00,26.6,23.3,29.60,WSW,242,1.0,3.0,87,0.00,,,0.00,Wunderground v.1.15,2014-01-20 12:42:00,
2014-01-20 07:43:00,26.6,23.3,29.60,SW,235,1.0,3.0,87,0.00,,,0.00,Wunderground v.1.15,2014-01-20 12:43:00,
2014-01-20 07:44:00,26.6,23.3,29.60,WSW,252,2.0,3.0,87,0.00,,,0.00,Wunderground v.1.15,2014-01-20 12:44:00,
2014-01-20 07:45:00,26.6,23.3,29.60,SW,228,1.0,3.0,87,0.00,,,0.00,Wunderground v.1.15,2014-01-20 12:45:00,
2014-01-20 07:46:00,26.6,23.3,29.60,West,267,0.0,3.0,87,0.00,,,0.00,Wunderground v.1.15,2014-01-20 12:46:00,
2014-01-20 07:49:00,26.7,23.4,29.60,West,274,1.0,3.0,87,0.00,,,0.00,Wunderground v.1.15,2014-01-20 12:49:00,
2014-01-20 07:50:00,26.7,23.4,29.60,SW,215,0.0,1.0,87,0.00,,,0.00,Wunderground v.1.15,2014-01-20 12:50:00,
2014-01-20 07:51:00,26.7,23.4,29.60,SW,224,0.0,1.0,87,0.00,,,0.00,Wunderground v.1.15,2014-01-20 12:51:00,
2014-01-20 07:52:00,26.7,23.4,29.60,SW,224,0.0,1.0,87,0.00,,,0.00,Wunderground v.1.15,2014-01-20 12:52:00,
2014-01-20 07:54:00,26.7,23.6,29.60,WSW,249,2.0,2.0,88,0.00,,,0.00,Wunderground v.1.15,2014-01-20 12:54:00,
2014-01-20 07:55:00,26.6,23.5,29.60,WSW,257,1.0,4.0,88,0.00,,,0.00,Wunderground v.1.15,2014-01-20 12:55:00,
2014-01-20 07:56:00,26.7,23.6,29.60,West,260,2.0,4.0,88,0.00,,,0.00,Wunderground v.1.15,2014-01-20 12:56:00,
2014-01-20 07:57:00,26.7,23.4,29.61,WSW,257,1.0,4.0,87,0.00,,,0.00,Wunderground v.1.15,2014-01-20 12:57:00,
2014-01-20 07:59:00,26.7,23.4,29.61,WSW,237,1.0,4.0,87,0.00,,,0.00,Wunderground v.1.15,2014-01-20 12:59:00,
2014-01-20 08:00:00,26.7,23.4,29.61,SW,231,0.0,4.0,87,0.00,,,0.00,Wunderground v.1.15,2014-01-20 13:00:00,
2014-01-20 08:01:00,26.7,23.4,29.61,WSW,254,2.0,2.0,87,0.00,,,0.00,Wunderground v.1.15,2014-01-20 13:01:00,
2014-01-20 08:02:00,26.7,23.4,29.61,WSW,257,0.0,2.0,87,0.00,,,0.00,Wunderground v.1.15,2014-01-20 13:02:00,
2014-01-20 08:04:00,26.8,23.4,29.61,SW,231,1.0,3.0,87,0.00,,,0.00,Wunderground v.1.15,2014-01-20 13:04:00,
2014-01-20 08:05:00,26.7,23.4,29.61,WSW,249,1.0,3.0,87,0.00,,,0.00,Wunderground v.1.15,2014-01-20 13:05:00,
2014-01-20 08:06:00,26.7,23.4,29.61,SW,228,1.0,3.0,87,0.00,,,0.00,Wunderground v.1.15,2014-01-20 13:06:00,
2014-01-20 08:07:00,26.7,23.4,29.61,SW,228,0.0,3.0,87,0.00,,,0.00,Wunderground v.1.15,2014-01-20 13:07:00,
2014-01-20 08:10:00,26.7,23.6,29.61,West,278,3.0,3.0,88,0.00,,,0.00,Wunderground v.1.15,2014-01-20 13:10:00,
2014-01-20 08:11:00,26.7,23.6,29.61,SSW,212,1.0,3.0,88,0.00,,,0.00,Wunderground v.1.15,2014-01-20 13:11:00,
2014-01-20 08:12:00,26.7,23.6,29.61,SW,235,1.0,3.0,88,0.00,,,0.00,Wunderground v.1.15,2014-01-20 13:12:00,
2014-01-20 08:13:00,26.7,23.4,29.61,WSW,257,0.0,3.0,87,0.00,,,0.00,Wunderground v.1.15,2014-01-20 13:13:00,
2014-01-20 08:15:00,26.7,23.6,29.61,SW,235,0.0,3.0,88,0.00,,,0.00,Wunderground v.1.15,2014-01-20 13:15:00,
2014-01-20 08:16:00,26.7,23.6,29.61,SW,228,1.0,3.0,88,0.00,,,0.00,Wunderground v.1.15,2014-01-20 13:16:00,
2014-01-20 08:17:00,26.7,23.6,29.61,WSW,252,1.0,3.0,88,0.00,,,0.00,Wunderground v.1.15,2014-01-20 13:17:00,
2014-01-20 08:18:00,26.7,23.6,29.61,WSW,246,1.0,3.0,88,0.00,,,0.00,Wunderground v.1.15,2014-01-20 13:18:00,
2014-01-20 08:20:00,26.7,23.6,29.62,WSW,250,0.0,1.0,88,0.00,,,0.00,Wunderground v.1.15,2014-01-20 13:20:00,
2014-01-20 08:22:00,26.7,23.6,29.62,SW,233,1.0,1.0,88,0.00,,,0.00,Wunderground v.1.15,2014-01-20 13:22:00,
2014-01-20 08:23:00,26.7,23.6,29.62,SW,224,0.0,2.0,88,0.00,,,0.00,Wunderground v.1.15,2014-01-20 13:23:00,
2014-01-20 08:25:00,26.8,23.7,29.62,South,183,2.0,2.0,88,0.00,,,0.00,Wunderground v.1.15,2014-01-20 13:25:00,
2014-01-20 08:27:00,26.8,23.7,29.62,WSW,239,0.0,2.0,88,0.00,,,0.00,Wunderground v.1.15,2014-01-20 13:27:00,
2014-01-20 08:28:00,26.8,23.7,29.61,SW,226,0.0,2.0,88,0.00,,,0.00,Wunderground v.1.15,2014-01-20 13:28:00,
2014-01-20 08:30:00,26.8,23.7,29.61,WSW,257,2.0,2.0,88,0.00,,,0.00,Wunderground v.1.15,2014-01-20 13:30:00,
2014-01-20 08:32:00,26.9,23.8,29.61,SW,233,0.0,2.0,88,0.00,,,0.00,Wunderground v.1.15,2014-01-20 13:32:00,
2014-01-20 08:33:00,26.9,23.8,29.61,SW,222,2.0,2.0,88,0.00,,,0.00,Wunderground v.1.15,2014-01-20 13:33:00,
2014-01-20 08:34:00,26.9,23.8,29.61,WSW,242,0.0,2.0,88,0.00,,,0.00,Wunderground v.1.15,2014-01-20 13:34:00,
2014-01-20 08:35:00,26.9,23.8,29.61,WSW,255,1.0,3.0,88,0.00,,,0.00,Wunderground v.1.15,2014-01-20 13:35:00,
2014-01-20 08:36:00,26.9,23.8,29.61,WSW,245,0.0,3.0,88,0.00,,,0.00,Wunderground v.1.15,2014-01-20 13:36:00,
2014-01-20 08:37:00,27.0,23.9,29.61,SW,235,0.0,3.0,88,0.00,,,0.00,Wunderground v.1.15,2014-01-20 13:37:00,
2014-01-20 08:38:00,27.0,23.9,29.61,WSW,240,0.0,3.0,88,0.00,,,0.00,Wunderground v.1.15,2014-01-20 13:38:00,
2014-01-20 08:39:00,27.1,24.3,29.61,WSW,256,1.0,3.0,89,0.00,,,0.00,Wunderground v.1.15,2014-01-20 13:39:00,
2014-01-20 08:41:00,27.1,24.0,29.61,SSW,198,1.0,1.0,88,0.00,,,0.00,Wunderground v.1.15,2014-01-20 13:41:00,
2014-01-20 08:42:00,27.1,24.0,29.61,WSW,249,2.0,5.0,88,0.00,,,0.00,Wunderground v.1.15,2014-01-20 13:42:00,
2014-01-20 08:43:00,27.1,24.0,29.61,WNW,299,1.0,5.0,88,0.00,,,0.00,Wunderground v.1.15,2014-01-20 13:43:00,
2014-01-20 08:45:00,27.1,24.0,29.61,SW,215,1.0,5.0,88,0.00,,,0.00,Wunderground v.1.15,2014-01-20 13:45:00,
2014-01-20 08:46:00,27.1,24.0,29.61,West,260,0.0,5.0,88,0.00,,,0.00,Wunderground v.1.15,2014-01-20 13:46:00,
2014-01-20 08:47:00,27.1,24.0,29.61,SW,226,4.0,5.0,88,0.00,,,0.00,Wunderground v.1.15,2014-01-20 13:47:00,
2014-01-20 08:49:00,27.2,24.1,29.61,WSW,252,2.0,5.0,88,0.00,,,0.00,Wunderground v.1.15,2014-01-20 13:49:00,
2014-01-20 08:50:00,27.1,23.7,29.61,WSW,243,1.0,2.0,87,0.00,,,0.00,Wunderground v.1.15,2014-01-20 13:50:00,
2014-01-20 08:51:00,27.2,23.8,29.61,South,183,1.0,2.0,87,0.00,,,0.00,Wunderground v.1.15,2014-01-20 13:51:00,
2014-01-20 08:52:00,27.2,24.1,29.61,West,264,1.0,2.0,88,0.00,,,0.00,Wunderground v.1.15,2014-01-20 13:52:00,
2014-01-20 08:55:00,27.2,23.8,29.61,WSW,257,1.0,6.0,87,0.00,,,0.00,Wunderground v.1.15,2014-01-20 13:55:00,
2014-01-20 08:57:00,27.2,23.8,29.61,WSW,242,1.0,6.0,87,0.00,,,0.00,Wunderground v.1.15,2014-01-20 13:57:00,
2014-01-20 08:58:00,27.2,24.1,29.61,SW,224,2.0,6.0,88,0.00,,,0.00,Wunderground v.1.15,2014-01-20 13:58:00,
2014-01-20 09:01:00,27.2,24.1,29.61,WSW,249,0.0,2.0,88,0.00,,,0.00,Wunderground v.1.15,2014-01-20 14:01:00,
2014-01-20 09:02:00,27.2,24.1,29.61,WSW,249,0.0,2.0,88,0.00,,,0.00,Wunderground v.1.15,2014-01-20 14:02:00,
2014-01-20 09:03:00,27.3,24.2,29.61,WSW,237,5.0,10.0,88,0.00,,,0.00,Wunderground v.1.15,2014-01-20 14:03:00,
2014-01-20 09:06:00,27.3,23.9,29.62,WSW,242,0.0,10.0,87,0.00,,,0.00,Wunderground v.1.15,2014-01-20 14:06:00,
2014-01-20 09:07:00,27.4,24.0,29.62,WSW,242,0.0,10.0,87,0.00,,,0.00,Wunderground v.1.15,2014-01-20 14:07:00,
2014-01-20 09:08:00,27.4,24.3,29.61,WSW,242,2.0,10.0,88,0.00,,,0.00,Wunderground v.1.15,2014-01-20 14:08:00,
2014-01-20 09:11:00,27.5,24.1,29.62,WSW,243,4.0,4.0,87,0.00,,,0.00,Wunderground v.1.15,2014-01-20 14:11:00,
2014-01-20 09:12:00,27.6,24.2,29.62,West,265,1.0,5.0,87,0.00,,,0.00,Wunderground v.1.15,2014-01-20 14:12:00,
2014-01-20 09:13:00,27.6,24.2,29.62,SW,222,0.0,5.0,87,0.00,,,0.00,Wunderground v.1.15,2014-01-20 14:13:00,
2014-01-20 09:14:00,27.6,24.2,29.62,WSW,249,0.0,5.0,87,0.00,,,0.00,Wunderground v.1.15,2014-01-20 14:14:00,
2014-01-20 09:17:00,27.8,24.7,29.62,WNW,296,2.0,5.0,88,0.00,,,0.00,Wunderground v.1.15,2014-01-20 14:17:00,
2014-01-20 09:18:00,27.8,24.7,29.62,West,264,1.0,5.0,88,0.00,,,0.00,Wunderground v.1.15,2014-01-20 14:18:00,
2014-01-20 09:19:00,27.8,24.4,29.62,South,169,5.0,5.0,87,0.00,,,0.00,Wunderground v.1.15,2014-01-20 14:19:00,
2014-01-20 09:22:00,27.9,24.5,29.62,South,169,2.0,4.0,87,0.00,,,0.00,Wunderground v.1.15,2014-01-20 14:22:00,
2014-01-20 09:23:00,27.9,24.5,29.62,South,169,6.0,6.0,87,0.00,,,0.00,Wunderground v.1.15,2014-01-20 14:23:00,
2014-01-20 09:24:00,27.9,24.5,29.62,South,169,2.0,6.0,87,0.00,,,0.00,Wunderground v.1.15,2014-01-20 14:24:00,
2014-01-20 09:28:00,28.0,24.6,29.62,South,169,3.0,6.0,87,0.00,,,0.00,Wunderground v.1.15,2014-01-20 14:28:00,
2014-01-20 09:29:00,28.0,24.6,29.61,South,169,7.0,7.0,87,0.00,,,0.00,Wunderground v.1.15,2014-01-20 14:29:00,
2014-01-20 09:33:00,28.0,24.6,29.61,SW,236,2.0,6.0,87,0.00,,,0.00,Wunderground v.1.15,2014-01-20 14:33:00,
2014-01-20 09:34:00,28.0,24.9,29.62,WNW,291,1.0,6.0,88,0.00,,,0.00,Wunderground v.1.15,2014-01-20 14:34:00,
2014-01-20 09:35:00,28.0,24.9,29.62,WSW,255,4.0,7.0,88,0.00,,,0.00,Wunderground v.1.15,2014-01-20 14:35:00,
2014-01-20 09:38:00,28.0,24.9,29.61,WSW,240,1.0,7.0,88,0.00,,,0.00,Wunderground v.1.15,2014-01-20 14:38:00,
2014-01-20 09:39:00,28.0,24.9,29.61,SW,236,1.0,7.0,88,0.00,,,0.00,Wunderground v.1.15,2014-01-20 14:39:00,
2014-01-20 09:40:00,28.0,24.9,29.61,SW,228,1.0,3.0,88,0.00,,,0.00,Wunderground v.1.15,2014-01-20 14:40:00,
2014-01-20 09:43:00,28.1,25.0,29.61,WSW,255,1.0,4.0,88,0.00,,,0.00,Wunderground v.1.15,2014-01-20 14:43:00,
2014-01-20 09:44:00,28.2,25.1,29.61,South,186,2.0,4.0,88,0.00,,,0.00,Wunderground v.1.15,2014-01-20 14:44:00,
2014-01-20 09:45:00,28.2,25.1,29.61,West,273,1.0,8.0,88,0.00,,,0.00,Wunderground v.1.15,2014-01-20 14:45:00,
2014-01-20 09:48:00,28.4,25.3,29.61,West,269,2.0,8.0,88,0.00,,,0.00,Wunderground v.1.15,2014-01-20 14:48:00,
2014-01-20 09:49:00,28.4,25.3,29.61,West,259,3.0,8.0,88,0.00,,,0.00,Wunderground v.1.15,2014-01-20 14:49:00,
2014-01-20 09:50:00,28.5,25.4,29.61,WSW,243,6.0,6.0,88,0.00,,,0.00,Wunderground v.1.15,2014-01-20 14:50:00,
2014-01-20 09:53:00,28.6,25.5,29.60,SW,231,3.0,6.0,88,0.00,,,0.00,Wunderground v.1.15,2014-01-20 14:53:00,
2014-01-20 09:54:00,28.6,25.5,29.61,SW,218,1.0,6.0,88,0.00,,,0.00,Wunderground v.1.15,2014-01-20 14:54:00,
2014-01-20 09:55:00,28.6,25.5,29.61,SW,235,3.0,6.0,88,0.00,,,0.00,Wunderground v.1.15,2014-01-20 14:55:00,
2014-01-20 09:59:00,28.9,25.8,29.60,WSW,238,2.0,6.0,88,0.00,,,0.00,Wunderground v.1.15,2014-01-20 14:59:00,
2014-01-20 10:01:00,29.0,25.9,29.60,SSW,211,2.0,3.0,88,0.00,,,0.00,Wunderground v.1.15,2014-01-20 15:01:00,
2014-01-20 10:02:00,29.1,25.7,29.60,SW,231,1.0,3.0,87,0.00,,,0.00,Wunderground v.1.15,2014-01-20 15:02:00,
2014-01-20 10:04:00,29.2,25.5,29.60,WSW,245,2.0,6.0,86,0.00,,,0.00,Wunderground v.1.15,2014-01-20 15:04:00,
2014-01-20 10:05:00,29.3,25.6,29.60,WSW,239,1.0,6.0,86,0.00,,,0.00,Wunderground v.1.15,2014-01-20 15:05:00,
2014-01-20 10:06:00,29.3,25.6,29.60,WSW,252,2.0,6.0,86,0.00,,,0.00,Wunderground v.1.15,2014-01-20 15:06:00,
2014-01-20 10:07:00,29.4,25.7,29.60,SW,222,1.0,6.0,86,0.00,,,0.00,Wunderground v.1.15,2014-01-20 15:07:00,
2014-01-20 10:10:00,29.4,25.7,29.60,WSW,241,4.0,8.0,86,0.00,,,0.00,Wunderground v.1.15,2014-01-20 15:10:00,
2014-01-20 10:11:00,29.6,25.9,29.60,West,274,3.0,5.0,86,0.00,,,0.00,Wunderground v.1.15,2014-01-20 15:11:00,
2014-01-20 10:12:00,29.6,25.9,29.60,SW,235,3.0,5.0,86,0.00,,,0.00,Wunderground v.1.15,2014-01-20 15:12:00,
2014-01-20 10:13:00,29.7,25.7,29.60,SW,226,1.0,6.0,85,0.00,,,0.00,Wunderground v.1.15,2014-01-20 15:13:00,
2014-01-20 10:15:00,29.8,25.8,29.60,SW,218,2.0,8.0,85,0.00,,,0.00,Wunderground v.1.15,2014-01-20 15:15:00,
2014-01-20 10:16:00,29.8,25.8,29.60,South,169,2.0,8.0,85,0.00,,,0.00,Wunderground v.1.15,2014-01-20 15:16:00,
2014-01-20 10:17:00,29.9,25.9,29.60,South,169,2.0,8.0,85,0.00,,,0.00,Wunderground v.1.15,2014-01-20 15:17:00,
2014-01-20 10:18:00,30.0,26.0,29.60,South,169,5.0,8.0,85,0.00,,,0.00,Wunderground v.1.15,2014-01-20 15:18:00,
2014-01-20 10:20:00,30.1,25.8,29.60,South,169,3.0,8.0,84,0.00,,,0.00,Wunderground v.1.15,2014-01-20 15:20:00,
2014-01-20 10:21:00,30.1,25.8,29.60,South,169,3.0,3.0,84,0.00,,,0.00,Wunderground v.1.15,2014-01-20 15:21:00,
2014-01-20 10:22:00,30.2,25.9,29.60,South,169,2.0,3.0,84,0.00,,,0.00,Wunderground v.1.15,2014-01-20 15:22:00,
2014-01-20 10:23:00,30.2,25.9,29.60,South,169,3.0,6.0,84,0.00,,,0.00,Wunderground v.1.15,2014-01-20 15:23:00,
2014-01-20 10:25:00,30.4,26.1,29.60,South,169,4.0,6.0,84,0.00,,,0.00,Wunderground v.1.15,2014-01-20 15:25:00,
2014-01-20 10:26:00,30.5,26.2,29.60,South,169,2.0,6.0,84,0.00,,,0.00,Wunderground v.1.15,2014-01-20 15:26:00,
2014-01-20 10:27:00,30.6,26.1,29.60,South,169,3.0,6.0,83,0.00,,,0.00,Wunderground v.1.15,2014-01-20 15:27:00,
2014-01-20 10:28:00,30.6,26.1,29.60,South,169,4.0,6.0,83,0.00,,,0.00,Wunderground v.1.15,2014-01-20 15:28:00,
2014-01-20 10:31:00,30.8,26.2,29.60,South,169,2.0,2.0,83,0.00,,,0.00,Wunderground v.1.15,2014-01-20 15:31:00,
2014-01-20 10:32:00,30.9,26.1,29.60,South,169,2.0,9.0,82,0.00,,,0.00,Wunderground v.1.15,2014-01-20 15:32:00,
2014-01-20 10:33:00,31.0,26.1,29.60,South,169,2.0,9.0,82,0.00,,,0.00,Wunderground v.1.15,2014-01-20 15:33:00,
2014-01-20 10:36:00,31.0,26.1,29.60,SW,229,1.0,9.0,82,0.00,,,0.00,Wunderground v.1.15,2014-01-20 15:36:00,
2014-01-20 10:37:00,31.1,26.0,29.60,SW,235,1.0,9.0,81,0.00,,,0.00,Wunderground v.1.15,2014-01-20 15:37:00,
2014-01-20 10:38:00,31.1,26.0,29.60,WSW,257,2.0,9.0,81,0.00,,,0.00,Wunderground v.1.15,2014-01-20 15:38:00,
2014-01-20 10:41:00,31.4,26.2,29.60,SW,235,5.0,5.0,81,0.00,,,0.00,Wunderground v.1.15,2014-01-20 15:41:00,
2014-01-20 10:43:00,31.5,26.3,29.60,SW,235,2.0,5.0,81,0.00,,,0.00,Wunderground v.1.15,2014-01-20 15:43:00,
2014-01-20 10:46:00,31.7,26.2,29.60,SW,215,2.0,8.0,80,0.00,,,0.00,Wunderground v.1.15,2014-01-20 15:46:00,
2014-01-20 10:47:00,31.7,26.2,29.60,SW,221,1.0,8.0,80,0.00,,,0.00,Wunderground v.1.15,2014-01-20 15:47:00,
2014-01-20 10:48:00,31.8,26.3,29.60,SW,229,3.0,8.0,80,0.00,,,0.00,Wunderground v.1.15,2014-01-20 15:48:00,
2014-01-20 10:49:00,32.0,26.5,29.61,WSW,252,2.0,8.0,80,0.00,,,0.00,Wunderground v.1.15,2014-01-20 15:49:00,
2014-01-20 10:51:00,31.9,26.1,29.61,SW,231,4.0,5.0,79,0.00,,,0.00,Wunderground v.1.15,2014-01-20 15:51:00,
2014-01-20 10:52:00,31.9,26.1,29.61,West,262,9.0,9.0,79,0.00,,,0.00,Wunderground v.1.15,2014-01-20 15:52:00,
2014-01-20 10:53:00,31.8,26.0,29.61,South,183,1.0,9.0,79,0.00,,,0.00,Wunderground v.1.15,2014-01-20 15:53:00,
2014-01-20 10:54:00,31.8,26.0,29.61,WSW,243,1.0,9.0,79,0.00,,,0.00,Wunderground v.1.15,2014-01-20 15:54:00,
2014-01-20 10:56:00,32.0,26.5,29.60,WSW,241,1.0,9.0,80,0.00,,,0.00,Wunderground v.1.15,2014-01-20 15:56:00,
2014-01-20 10:57:00,32.1,26.6,29.60,WSW,252,3.0,9.0,80,0.00,,,0.00,Wunderground v.1.15,2014-01-20 15:57:00,
2014-01-20 10:58:00,32.2,26.7,29.60,WSW,254,2.0,9.0,80,0.00,,,0.00,Wunderground v.1.15,2014-01-20 15:58:00,
2014-01-20 10:59:00,32.2,26.4,29.60,WSW,238,2.0,9.0,79,0.00,,,0.00,Wunderground v.1.15,2014-01-20 15:59:00,
2014-01-20 11:01:00,32.5,26.7,29.60,South,183,3.0,3.0,79,0.00,,,0.00,Wunderground v.1.15,2014-01-20 16:01:00,
2014-01-20 11:03:00,32.6,26.8,29.60,WSW,238,2.0,6.0,79,0.00,,,0.00,Wunderground v.1.15,2014-01-20 16:03:00,
2014-01-20 11:04:00,32.6,26.8,29.60,SW,233,2.0,6.0,79,0.00,,,0.00,Wunderground v.1.15,2014-01-20 16:04:00,
2014-01-20 11:05:00,32.7,26.9,29.60,West,269,3.0,6.0,79,0.00,,,0.00,Wunderground v.1.15,2014-01-20 16:05:00,
2014-01-20 11:07:00,32.6,26.5,29.60,SW,218,3.0,6.0,78,0.00,,,0.00,Wunderground v.1.15,2014-01-20 16:07:00,
2014-01-20 11:09:00,32.5,26.4,29.60,North,4,4.0,7.0,78,0.00,,,0.00,Wunderground v.1.15,2014-01-20 16:09:00,
2014-01-20 11:10:00,32.4,26.3,29.60,SSW,212,2.0,3.0,78,0.00,,,0.00,Wunderground v.1.15,2014-01-20 16:10:00,
2014-01-20 11:12:00,32.1,26.0,29.59,West,260,3.0,7.0,78,0.00,,,0.00,Wunderground v.1.15,2014-01-20 16:12:00,
2014-01-20 11:14:00,32.0,26.2,29.60,West,270,2.0,7.0,79,0.00,,,0.00,Wunderground v.1.15,2014-01-20 16:14:00,
2014-01-20 11:15:00,31.9,26.1,29.60,SW,219,2.0,7.0,79,0.00,,,0.00,Wunderground v.1.15,2014-01-20 16:15:00,
2014-01-20 11:16:00,31.9,26.1,29.59,South,187,1.0,7.0,79,0.00,,,0.00,Wunderground v.1.15,2014-01-20 16:16:00,
2014-01-20 11:17:00,31.8,26.0,29.59,WSW,239,3.0,7.0,79,0.00,,,0.00,Wunderground v.1.15,2014-01-20 16:17:00,
2014-01-20 11:19:00,31.8,26.0,29.59,SW,233,1.0,7.0,79,0.00,,,0.00,Wunderground v.1.15,2014-01-20 16:19:00,
2014-01-20 11:20:00,31.9,26.4,29.59,WSW,252,1.0,2.0,80,0.00,,,0.00,Wunderground v.1.15,2014-01-20 16:20:00,
2014-01-20 11:21:00,31.9,26.1,29.59,West,263,4.0,4.0,79,0.00,,,0.00,Wunderground v.1.15,2014-01-20 16:21:00,
2014-01-20 11:23:00,31.8,25.7,29.59,SW,233,1.0,10.0,78,0.00,,,0.00,Wunderground v.1.15,2014-01-20 16:23:00,
2014-01-20 11:24:00,31.8,26.0,29.59,WSW,242,3.0,10.0,79,0.00,,,0.00,Wunderground v.1.15,2014-01-20 16:24:00,
2014-01-20 11:25:00,31.8,26.0,29.59,West,271,4.0,10.0,79,0.00,,,0.00,Wunderground v.1.15,2014-01-20 16:25:00,
2014-01-20 11:26:00,31.7,25.9,29.59,SW,235,4.0,10.0,79,0.00,,,0.00,Wunderground v.1.15,2014-01-20 16:26:00,
2014-01-20 11:28:00,31.7,25.6,29.59,SW,232,3.0,10.0,78,0.00,,,0.00,Wunderground v.1.15,2014-01-20 16:28:00,
2014-01-20 11:29:00,31.8,26.0,29.59,West,262,1.0,10.0,79,0.00,,,0.00,Wunderground v.1.15,2014-01-20 16:29:00,
2014-01-20 11:30:00,31.8,26.3,29.59,WSW,245,2.0,10.0,80,0.00,,,0.00,Wunderground v.1.15,2014-01-20 16:30:00,
2014-01-20 11:31:00,31.8,26.0,29.59,SW,235,3.0,5.0,79,0.00,,,0.00,Wunderground v.1.15,2014-01-20 16:31:00,
2014-01-20 11:33:00,31.8,26.0,29.59,WNW,294,2.0,6.0,79,0.00,,,0.00,Wunderground v.1.15,2014-01-20 16:33:00,
2014-01-20 11:34:00,31.8,26.0,29.59,West,260,2.0,6.0,79,0.00,,,0.00,Wunderground v.1.15,2014-01-20 16:34:00,
2014-01-20 11:35:00,31.7,25.9,29.59,West,264,3.0,6.0,79,0.00,,,0.00,Wunderground v.1.15,2014-01-20 16:35:00,
2014-01-20 11:36:00,31.7,25.9,29.59,WSW,243,4.0,7.0,79,0.00,,,0.00,Wunderground v.1.15,2014-01-20 16:36:00,
2014-01-20 11:37:00,31.7,25.9,29.59,SW,229,3.0,7.0,79,0.00,,,0.00,Wunderground v.1.15,2014-01-20 16:37:00,
2014-01-20 11:38:00,31.6,25.8,29.59,SW,228,5.0,7.0,79,0.00,,,0.00,Wunderground v.1.15,2014-01-20 16:38:00,
2014-01-20 11:39:00,31.6,25.8,29.59,SW,215,1.0,7.0,79,0.00,,,0.00,Wunderground v.1.15,2014-01-20 16:39:00,
2014-01-20 11:40:00,31.6,26.1,29.59,WNW,302,5.0,6.0,80,0.00,,,0.00,Wunderground v.1.15,2014-01-20 16:40:00,
2014-01-20 11:41:00,31.6,26.1,29.59,SW,214,3.0,10.0,80,0.00,,,0.00,Wunderground v.1.15,2014-01-20 16:41:00,
2014-01-20 11:42:00,31.6,25.8,29.59,South,183,3.0,10.0,79,0.00,,,0.00,Wunderground v.1.15,2014-01-20 16:42:00,
2014-01-20 11:43:00,31.6,26.1,29.59,West,274,3.0,10.0,80,0.00,,,0.00,Wunderground v.1.15,2014-01-20 16:43:00,
2014-01-20 11:44:00,31.5,25.7,29.59,WNW,283,2.0,10.0,79,0.00,,,0.00,Wunderground v.1.15,2014-01-20 16:44:00,
2014-01-20 11:45:00,31.5,26.0,29.60,WSW,249,4.0,10.0,80,0.00,,,0.00,Wunderground v.1.15,2014-01-20 16:45:00,
2014-01-20 11:46:00,31.5,26.0,29.59,WSW,239,2.0,10.0,80,0.00,,,0.00,Wunderground v.1.15,2014-01-20 16:46:00,
2014-01-20 11:47:00,31.4,25.9,29.59,WSW,248,3.0,10.0,80,0.00,,,0.00,Wunderground v.1.15,2014-01-20 16:47:00,
2014-01-20 11:48:00,31.4,25.9,29.60,SW,233,2.0,10.0,80,0.00,,,0.00,Wunderground v.1.15,2014-01-20 16:48:00,
2014-01-20 11:49:00,31.3,25.8,29.60,West,270,2.0,10.0,80,0.00,,,0.00,Wunderground v.1.15,2014-01-20 16:49:00,
2014-01-20 11:50:00,31.2,25.7,29.59,WSW,249,2.0,3.0,80,0.00,,,0.00,Wunderground v.1.15,2014-01-20 16:50:00,
2014-01-20 11:51:00,31.2,26.0,29.59,WSW,257,3.0,3.0,81,0.00,,,0.00,Wunderground v.1.15,2014-01-20 16:51:00,
2014-01-20 11:52:00,31.2,26.0,29.59,WSW,252,3.0,4.0,81,0.00,,,0.00,Wunderground v.1.15,2014-01-20 16:52:00,
2014-01-20 11:53:00,31.2,26.0,29.59,SW,218,2.0,6.0,81,0.00,,,0.00,Wunderground v.1.15,2014-01-20 16:53:00,
2014-01-20 11:54:00,31.2,26.0,29.59,SSW,210,2.0,7.0,81,0.00,,,0.00,Wunderground v.1.15,2014-01-20 16:54:00,
2014-01-20 11:56:00,31.2,26.0,29.59,SW,231,5.0,9.0,81,0.00,,,0.00,Wunderground v.1.15,2014-01-20 16:56:00,
2014-01-20 11:57:00,31.1,26.0,29.59,WSW,257,2.0,9.0,81,0.00,,,0.00,Wunderground v.1.15,2014-01-20 16:57:00,
2014-01-20 11:58:00,31.1,26.2,29.59,WSW,245,1.0,9.0,82,0.00,,,0.00,Wunderground v.1.15,2014-01-20 16:58:00,
2014-01-20 12:02:00,31.0,25.9,29.59,WSW,249,2.0,3.0,81,0.00,,,0.00,Wunderground v.1.15,2014-01-20 17:02:00,
2014-01-20 12:03:00,31.0,26.1,29.59,WSW,242,3.0,3.0,82,0.00,,,0.00,Wunderground v.1.15,2014-01-20 17:03:00,
2014-01-20 12:04:00,31.0,26.1,29.59,SW,231,2.0,3.0,82,0.00,,,0.00,Wunderground v.1.15,2014-01-20 17:04:00,
2014-01-20 12:07:00,31.0,26.1,29.59,South,183,4.0,4.0,82,0.00,,,0.00,Wunderground v.1.15,2014-01-20 17:07:00,
2014-01-20 12:08:00,31.0,26.1,29.59,SW,235,6.0,10.0,82,0.00,,,0.00,Wunderground v.1.15,2014-01-20 17:08:00,
2014-01-20 12:09:00,31.0,26.1,29.59,SW,229,3.0,10.0,82,0.00,,,0.00,Wunderground v.1.15,2014-01-20 17:09:00,
2014-01-20 12:10:00,31.0,26.1,29.59,SW,222,2.0,10.0,82,0.00,,,0.00,Wunderground v.1.15,2014-01-20 17:10:00,
2014-01-20 12:12:00,31.0,26.4,29.59,SSW,210,1.0,3.0,83,0.00,,,0.00,Wunderground v.1.15,2014-01-20 17:12:00,
2014-01-20 12:13:00,31.0,26.4,29.59,SSW,212,0.0,3.0,83,0.00,,,0.00,Wunderground v.1.15,2014-01-20 17:13:00,
2014-01-20 12:14:00,31.0,26.4,29.59,SSW,207,6.0,6.0,83,0.00,,,0.00,Wunderground v.1.15,2014-01-20 17:14:00,
2014-01-20 12:16:00,31.0,26.4,29.59,WSW,239,2.0,7.0,83,0.00,,,0.00,Wunderground v.1.15,2014-01-20 17:16:00,
2014-01-20 12:17:00,31.0,26.4,29.59,SW,235,0.0,7.0,83,0.00,,,0.00,Wunderground v.1.15,2014-01-20 17:17:00,
2014-01-20 12:18:00,31.1,26.5,29.59,South,183,2.0,7.0,83,0.00,,,0.00,Wunderground v.1.15,2014-01-20 17:18:00,
2014-01-20 12:19:00,31.1,26.5,29.59,WSW,252,6.0,7.0,83,0.00,,,0.00,Wunderground v.1.15,2014-01-20 17:19:00,
2014-01-20 12:21:00,31.1,26.5,29.59,WSW,242,0.0,2.0,83,0.00,,,0.00,Wunderground v.1.15,2014-01-20 17:21:00,
2014-01-20 12:22:00,31.2,26.9,29.58,SW,214,4.0,5.0,84,0.00,,,0.00,Wunderground v.1.15,2014-01-20 17:22:00,
2014-01-20 12:23:00,31.2,26.9,29.58,WSW,246,1.0,5.0,84,0.00,,,0.00,Wunderground v.1.15,2014-01-20 17:23:00,
2014-01-20 12:24:00,31.2,26.9,29.58,WSW,257,2.0,5.0,84,0.00,,,0.00,Wunderground v.1.15,2014-01-20 17:24:00,
2014-01-20 12:26:00,31.3,27.0,29.58,WSW,255,3.0,5.0,84,0.00,,,0.00,Wunderground v.1.15,2014-01-20 17:26:00,
2014-01-20 12:27:00,31.2,26.9,29.58,WSW,239,7.0,9.0,84,0.00,,,0.00,Wunderground v.1.15,2014-01-20 17:27:00,
2014-01-20 12:28:00,31.2,26.9,29.58,West,281,2.0,9.0,84,0.00,,,0.00,Wunderground v.1.15,2014-01-20 17:28:00,
2014-01-20 12:29:00,31.2,26.9,29.58,West,264,2.0,9.0,84,0.00,,,0.00,Wunderground v.1.15,2014-01-20 17:29:00,
2014-01-20 12:31:00,31.1,27.1,29.58,WNW,290,3.0,4.0,85,0.00,,,0.00,Wunderground v.1.15,2014-01-20 17:31:00,
2014-01-20 12:32:00,31.0,27.6,29.58,West,260,2.0,4.0,87,0.00,,,0.00,Wunderground v.1.15,2014-01-20 17:32:00,
2014-01-20 12:34:00,31.0,27.6,29.58,SW,219,4.0,4.0,87,0.00,,,0.00,Wunderground v.1.15,2014-01-20 17:34:00,
2014-01-20 12:36:00,30.9,27.8,29.58,West,262,2.0,6.0,88,0.00,,,0.00,Wunderground v.1.15,2014-01-20 17:36:00,
2014-01-20 12:38:00,30.8,27.7,29.58,SW,224,2.0,6.0,88,0.00,,,0.00,Wunderground v.1.15,2014-01-20 17:38:00,
2014-01-20 12:39:00,30.8,27.7,29.58,SSW,198,3.0,6.0,88,0.00,,,0.00,Wunderground v.1.15,2014-01-20 17:39:00,
2014-01-20 12:40:00,30.8,27.7,29.58,WSW,249,3.0,6.0,88,0.00,,,0.00,Wunderground v.1.15,2014-01-20 17:40:00,
2014-01-20 12:41:00,30.8,27.7,29.58,WSW,242,2.0,3.0,88,0.00,,,0.00,Wunderground v.1.15,2014-01-20 17:41:00,
2014-01-20 12:43:00,30.7,27.8,29.58,SW,228,4.0,4.0,89,0.00,,,0.00,Wunderground v.1.15,2014-01-20 17:43:00,
2014-01-20 12:44:00,30.7,27.8,29.58,WSW,245,3.0,5.0,89,0.00,,,0.00,Wunderground v.1.15,2014-01-20 17:44:00,
2014-01-20 12:45:00,30.7,27.8,29.58,WSW,252,3.0,5.0,89,0.00,,,0.00,Wunderground v.1.15,2014-01-20 17:45:00,
2014-01-20 12:47:00,30.6,27.7,29.58,WSW,242,2.0,6.0,89,0.00,,,0.00,Wunderground v.1.15,2014-01-20 17:47:00,
2014-01-20 12:48:00,30.6,27.7,29.58,SW,223,1.0,6.0,89,0.00,,,0.00,Wunderground v.1.15,2014-01-20 17:48:00,
2014-01-20 12:49:00,30.6,27.7,29.58,WSW,252,4.0,6.0,89,0.00,,,0.00,Wunderground v.1.15,2014-01-20 17:49:00,
2014-01-20 12:50:00,30.6,27.7,29.58,SW,235,3.0,6.0,89,0.00,,,0.00,Wunderground v.1.15,2014-01-20 17:50:00,
2014-01-20 12:52:00,30.6,27.7,29.58,SSW,208,3.0,4.0,89,0.00,,,0.00,Wunderground v.1.15,2014-01-20 17:52:00,
2014-01-20 12:53:00,30.6,27.7,29.57,WSW,257,2.0,5.0,89,0.00,,,0.00,Wunderground v.1.15,2014-01-20 17:53:00,
2014-01-20 12:54:00,30.7,27.8,29.57,WSW,245,1.0,5.0,89,0.00,,,0.00,Wunderground v.1.15,2014-01-20 17:54:00,
2014-01-20 12:55:00,30.7,27.8,29.57,SW,226,1.0,5.0,89,0.00,,,0.00,Wunderground v.1.15,2014-01-20 17:55:00,
2014-01-20 12:57:00,31.0,28.4,29.57,WSW,238,1.0,5.0,90,0.00,,,0.00,Wunderground v.1.15,2014-01-20 17:57:00,
2014-01-20 12:58:00,31.0,28.4,29.57,WSW,257,2.0,5.0,90,0.00,,,0.00,Wunderground v.1.15,2014-01-20 17:58:00,
2014-01-20 13:00:00,31.1,28.2,29.57,SW,233,2.0,2.0,89,0.00,,,0.00,Wunderground v.1.15,2014-01-20 18:00:00,
2014-01-20 13:01:00,31.1,28.2,29.57,SW,226,1.0,2.0,89,0.00,,,0.00,Wunderground v.1.15,2014-01-20 18:01:00,
2014-01-20 13:02:00,31.2,28.3,29.57,SW,229,1.0,2.0,89,0.00,,,0.00,Wunderground v.1.15,2014-01-20 18:02:00,
2014-01-20 13:03:00,31.2,28.3,29.57,WSW,242,2.0,3.0,89,0.00,,,0.00,Wunderground v.1.15,2014-01-20 18:03:00,
2014-01-20 13:05:00,31.4,28.5,29.57,WSW,246,0.0,3.0,89,0.00,,,0.00,Wunderground v.1.15,2014-01-20 18:05:00,
2014-01-20 13:06:00,31.5,28.6,29.57,WSW,242,0.0,3.0,89,0.00,,,0.00,Wunderground v.1.15,2014-01-20 18:06:00,
2014-01-20 13:07:00,31.6,28.7,29.57,SW,230,2.0,3.0,89,0.00,,,0.00,Wunderground v.1.15,2014-01-20 18:07:00,
2014-01-20 13:08:00,31.6,28.5,29.57,WSW,256,4.0,6.0,88,0.00,,,0.00,Wunderground v.1.15,2014-01-20 18:08:00,
2014-01-20 13:09:00,31.6,28.5,29.57,WSW,255,3.0,6.0,88,0.00,,,0.00,Wunderground v.1.15,2014-01-20 18:09:00,
2014-01-20 13:10:00,31.6,28.2,29.57,WSW,257,5.0,5.0,87,0.00,,,0.00,Wunderground v.1.15,2014-01-20 18:10:00,
2014-01-20 13:12:00,31.6,28.2,29.57,WSW,238,1.0,5.0,87,0.00,,,0.00,Wunderground v.1.15,2014-01-20 18:12:00,
2014-01-20 13:14:00,31.6,28.2,29.58,WSW,245,5.0,5.0,87,0.00,,,0.00,Wunderground v.1.15,2014-01-20 18:14:00,
2014-01-20 13:15:00,31.6,28.2,29.58,SSW,204,3.0,8.0,87,0.00,,,0.00,Wunderground v.1.15,2014-01-20 18:15:00,
2014-01-20 13:17:00,31.6,28.2,29.58,WSW,238,1.0,8.0,87,0.00,,,0.00,Wunderground v.1.15,2014-01-20 18:17:00,
2014-01-20 13:18:00,31.6,28.2,29.58,SW,226,0.0,8.0,87,0.00,,,0.00,Wunderground v.1.15,2014-01-20 18:18:00,
2014-01-20 13:19:00,31.6,28.5,29.58,WSW,255,4.0,8.0,88,0.00,,,0.00,Wunderground v.1.15,2014-01-20 18:19:00,
2014-01-20 13:20:00,31.6,28.2,29.58,WSW,252,4.0,9.0,87,0.00,,,0.00,Wunderground v.1.15,2014-01-20 18:20:00,
2014-01-20 13:22:00,31.5,27.8,29.58,West,260,4.0,9.0,86,0.00,,,0.00,Wunderground v.1.15,2014-01-20 18:22:00,
2014-01-20 13:23:00,31.5,27.8,29.58,SW,235,2.0,9.0,86,0.00,,,0.00,Wunderground v.1.15,2014-01-20 18:23:00,
2014-01-20 13:24:00,31.5,28.1,29.58,WSW,257,4.0,9.0,87,0.00,,,0.00,Wunderground v.1.15,2014-01-20 18:24:00,
2014-01-20 13:25:00,31.5,28.1,29.58,SW,235,1.0,9.0,87,0.00,,,0.00,Wunderground v.1.15,2014-01-20 18:25:00,
2014-01-20 13:26:00,31.5,28.1,29.58,SW,222,4.0,9.0,87,0.00,,,0.00,Wunderground v.1.15,2014-01-20 18:26:00,
2014-01-20 13:27:00,31.5,27.8,29.58,West,280,1.0,9.0,86,0.00,,,0.00,Wunderground v.1.15,2014-01-20 18:27:00,
2014-01-20 13:28:00,31.5,28.1,29.58,WSW,242,4.0,9.0,87,0.00,,,0.00,Wunderground v.1.15,2014-01-20 18:28:00,
2014-01-20 13:29:00,31.5,28.1,29.57,SW,231,3.0,9.0,87,0.00,,,0.00,Wunderground v.1.15,2014-01-20 18:29:00,
2014-01-20 13:30:00,31.5,27.8,29.57,WSW,245,3.0,3.0,86,0.00,,,0.00,Wunderground v.1.15,2014-01-20 18:30:00,
2014-01-20 13:31:00,31.5,27.8,29.58,West,263,1.0,3.0,86,0.00,,,0.00,Wunderground v.1.15,2014-01-20 18:31:00,
2014-01-20 13:32:00,31.5,27.8,29.58,WSW,238,1.0,3.0,86,0.00,,,0.00,Wunderground v.1.15,2014-01-20 18:32:00,
2014-01-20 13:33:00,31.5,27.8,29.57,South,183,1.0,5.0,86,0.00,,,0.00,Wunderground v.1.15,2014-01-20 18:33:00,
2014-01-20 13:34:00,31.6,27.9,29.57,South,183,1.0,5.0,86,0.00,,,0.00,Wunderground v.1.15,2014-01-20 18:34:00,
2014-01-20 13:35:00,31.6,28.2,29.57,South,183,1.0,5.0,87,0.00,,,0.00,Wunderground v.1.15,2014-01-20 18:35:00,
2014-01-20 13:36:00,31.6,28.2,29.57,SW,215,3.0,5.0,87,0.00,,,0.00,Wunderground v.1.15,2014-01-20 18:36:00,
2014-01-20 13:37:00,31.6,28.2,29.56,WSW,252,3.0,5.0,87,0.00,,,0.00,Wunderground v.1.15,2014-01-20 18:37:00,
2014-01-20 13:39:00,31.6,28.2,29.57,SW,235,2.0,5.0,87,0.00,,,0.00,Wunderground v.1.15,2014-01-20 18:39:00,
2014-01-20 13:40:00,31.5,28.1,29.57,WSW,255,3.0,3.0,87,0.00,,,0.00,Wunderground v.1.15,2014-01-20 18:40:00,
2014-01-20 13:41:00,31.5,27.8,29.57,NW,313,3.0,6.0,86,0.00,,,0.00,Wunderground v.1.15,2014-01-20 18:41:00,
2014-01-20 13:42:00,31.5,27.8,29.57,WSW,246,1.0,6.0,86,0.00,,,0.00,Wunderground v.1.15,2014-01-20 18:42:00,
2014-01-20 13:44:00,31.5,28.1,29.57,SW,233,1.0,6.0,87,0.00,,,0.00,Wunderground v.1.15,2014-01-20 18:44:00,
2014-01-20 13:45:00,31.5,28.1,29.57,SW,231,1.0,6.0,87,0.00,,,0.00,Wunderground v.1.15,2014-01-20 18:45:00,
2014-01-20 13:46:00,31.5,28.1,29.57,WSW,243,1.0,6.0,87,0.00,,,0.00,Wunderground v.1.15,2014-01-20 18:46:00,
2014-01-20 13:47:00,31.5,28.4,29.56,SW,221,1.0,6.0,88,0.00,,,0.00,Wunderground v.1.15,2014-01-20 18:47:00,
2014-01-20 13:50:00,31.6,28.5,29.57,WSW,239,3.0,4.0,88,0.00,,,0.00,Wunderground v.1.15,2014-01-20 18:50:00,
2014-01-20 13:52:00,31.6,28.2,29.56,NW,309,7.0,7.0,87,0.00,,,0.00,Wunderground v.1.15,2014-01-20 18:52:00,
2014-01-20 13:55:00,31.5,28.1,29.56,SW,226,3.0,7.0,87,0.00,,,0.00,Wunderground v.1.15,2014-01-20 18:55:00,
2014-01-20 13:56:00,31.5,28.1,29.56,WNW,300,2.0,7.0,87,0.00,,,0.00,Wunderground v.1.15,2014-01-20 18:56:00,
2014-01-20 13:57:00,31.4,28.3,29.56,SSW,203,2.0,7.0,88,0.00,,,0.00,Wunderground v.1.15,2014-01-20 18:57:00,
2014-01-20 13:58:00,31.4,28.3,29.56,SW,236,2.0,7.0,88,0.00,,,0.00,Wunderground v.1.15,2014-01-20 18:58:00,
2014-01-20 14:01:00,31.3,28.2,29.56,SW,226,1.0,6.0,88,0.00,,,0.00,Wunderground v.1.15,2014-01-20 19:01:00,
2014-01-20 14:02:00,31.3,28.2,29.56,WSW,242,2.0,6.0,88,0.00,,,0.00,Wunderground v.1.15,2014-01-20 19:02:00,
2014-01-20 14:03:00,31.3,28.2,29.56,WSW,252,0.0,6.0,88,0.00,,,0.00,Wunderground v.1.15,2014-01-20 19:03:00,
2014-01-20 14:06:00,31.2,28.3,29.57,SSW,210,1.0,8.0,89,0.00,,,0.00,Wunderground v.1.15,2014-01-20 19:06:00,
2014-01-20 14:07:00,31.2,28.3,29.57,WSW,252,0.0,8.0,89,0.00,,,0.00,Wunderground v.1.15,2014-01-20 19:07:00,
2014-01-20 14:08:00,31.2,28.3,29.57,WSW,245,1.0,8.0,89,0.00,,,0.00,Wunderground v.1.15,2014-01-20 19:08:00,
2014-01-20 14:12:00,31.2,28.3,29.57,SW,228,3.0,4.0,89,0.00,,,0.00,Wunderground v.1.15,2014-01-20 19:12:00,
2014-01-20 14:13:00,31.2,28.3,29.57,West,260,2.0,4.0,89,0.00,,,0.00,Wunderground v.1.15,2014-01-20 19:13:00,
2014-01-20 14:17:00,31.0,28.1,29.57,SW,226,1.0,7.0,89,0.00,,,0.00,Wunderground v.1.15,2014-01-20 19:17:00,
2014-01-20 14:18:00,31.0,28.1,29.57,SW,219,3.0,7.0,89,0.00,,,0.00,Wunderground v.1.15,2014-01-20 19:18:00,
2014-01-20 14:22:00,31.0,28.1,29.57,West,271,1.0,6.0,89,0.00,,,0.00,Wunderground v.1.15,2014-01-20 19:22:00,
2014-01-20 14:23:00,31.0,28.1,29.57,SSW,198,1.0,6.0,89,0.00,,,0.00,Wunderground v.1.15,2014-01-20 19:23:00,
2014-01-20 14:24:00,30.9,28.0,29.57,SSW,212,0.0,6.0,89,0.00,,,0.00,Wunderground v.1.15,2014-01-20 19:24:00,
2014-01-20 14:28:00,30.9,28.0,29.57,SW,226,1.0,6.0,89,0.00,,,0.00,Wunderground v.1.15,2014-01-20 19:28:00,
2014-01-20 14:29:00,31.0,28.4,29.57,SW,232,0.0,6.0,90,0.00,,,0.00,Wunderground v.1.15,2014-01-20 19:29:00,
2014-01-20 14:33:00,31.0,28.4,29.57,SSW,212,1.0,3.0,90,0.00,,,0.00,Wunderground v.1.15,2014-01-20 19:33:00,
2014-01-20 14:34:00,31.0,28.4,29.57,SW,218,0.0,3.0,90,0.00,,,0.00,Wunderground v.1.15,2014-01-20 19:34:00,
2014-01-20 14:38:00,30.9,28.3,29.57,WSW,257,1.0,3.0,90,0.00,,,0.00,Wunderground v.1.15,2014-01-20 19:38:00,
2014-01-20 14:39:00,30.9,28.3,29.57,SW,233,2.0,3.0,90,0.00,,,0.00,Wunderground v.1.15,2014-01-20 19:39:00,
2014-01-20 14:40:00,30.9,28.3,29.57,WSW,245,0.0,1.0,90,0.00,,,0.00,Wunderground v.1.15,2014-01-20 19:40:00,
2014-01-20 14:43:00,30.9,28.3,29.57,SW,219,0.0,2.0,90,0.00,,,0.00,Wunderground v.1.15,2014-01-20 19:43:00,
2014-01-20 14:44:00,30.9,28.3,29.57,SW,235,0.0,2.0,90,0.00,,,0.00,Wunderground v.1.15,2014-01-20 19:44:00,
2014-01-20 14:45:00,30.9,28.3,29.58,WSW,242,0.0,2.0,90,0.00,,,0.00,Wunderground v.1.15,2014-01-20 19:45:00,
2014-01-20 14:47:00,30.9,28.3,29.58,West,266,3.0,4.0,90,0.00,,,0.00,Wunderground v.1.15,2014-01-20 19:47:00,
2014-01-20 14:48:00,30.8,28.2,29.58,SW,235,3.0,5.0,90,0.00,,,0.00,Wunderground v.1.15,2014-01-20 19:48:00,
2014-01-20 14:49:00,30.8,28.2,29.58,SW,235,2.0,5.0,90,0.00,,,0.00,Wunderground v.1.15,2014-01-20 19:49:00,
2014-01-20 14:51:00,30.8,28.2,29.58,SW,221,1.0,5.0,90,0.00,,,0.00,Wunderground v.1.15,2014-01-20 19:51:00,
2014-01-20 14:52:00,30.8,28.2,29.59,SW,235,2.0,5.0,90,0.00,,,0.00,Wunderground v.1.15,2014-01-20 19:52:00,
2014-01-20 14:53:00,30.8,28.2,29.59,WSW,238,2.0,5.0,90,0.00,,,0.00,Wunderground v.1.15,2014-01-20 19:53:00,
2014-01-20 14:54:00,30.8,28.2,29.59,SSW,210,2.0,5.0,90,0.00,,,0.00,Wunderground v.1.15,2014-01-20 19:54:00,
2014-01-20 14:56:00,30.9,28.3,29.59,SW,228,1.0,5.0,90,0.00,,,0.00,Wunderground v.1.15,2014-01-20 19:56:00,
2014-01-20 14:57:00,30.9,28.3,29.59,SW,226,1.0,5.0,90,0.00,,,0.00,Wunderground v.1.15,2014-01-20 19:57:00,
2014-01-20 14:58:00,30.9,28.3,29.59,WSW,249,0.0,5.0,90,0.00,,,0.00,Wunderground v.1.15,2014-01-20 19:58:00,
2014-01-20 14:59:00,30.9,28.3,29.59,WSW,249,1.0,5.0,90,0.00,,,0.00,Wunderground v.1.15,2014-01-20 19:59:00,
2014-01-20 15:01:00,30.9,28.3,29.59,West,271,1.0,2.0,90,0.00,,,0.00,Wunderground v.1.15,2014-01-20 20:01:00,
2014-01-20 15:02:00,30.9,28.3,29.59,WSW,252,0.0,2.0,90,0.00,,,0.00,Wunderground v.1.15,2014-01-20 20:02:00,
2014-01-20 15:03:00,31.0,28.4,29.59,WSW,252,0.0,2.0,90,0.00,,,0.00,Wunderground v.1.15,2014-01-20 20:03:00,
2014-01-20 15:04:00,31.0,28.7,29.59,West,263,1.0,2.0,91,0.00,,,0.00,Wunderground v.1.15,2014-01-20 20:04:00,
2014-01-20 15:05:00,31.0,28.7,29.60,SW,226,0.0,2.0,91,0.00,,,0.00,Wunderground v.1.15,2014-01-20 20:05:00,
2014-01-20 15:06:00,31.0,28.4,29.60,WSW,255,3.0,3.0,90,0.00,,,0.00,Wunderground v.1.15,2014-01-20 20:06:00,
2014-01-20 15:07:00,31.0,28.4,29.60,SW,231,2.0,3.0,90,0.00,,,0.00,Wunderground v.1.15,2014-01-20 20:07:00,
2014-01-20 15:09:00,31.0,28.4,29.60,WSW,246,1.0,5.0,90,0.00,,,0.00,Wunderground v.1.15,2014-01-20 20:09:00,
2014-01-20 15:10:00,31.0,28.4,29.60,WSW,248,3.0,3.0,90,0.00,,,0.00,Wunderground v.1.15,2014-01-20 20:10:00,
2014-01-20 15:11:00,31.0,28.4,29.60,SW,235,1.0,3.0,90,0.00,,,0.00,Wunderground v.1.15,2014-01-20 20:11:00,
2014-01-20 15:12:00,30.9,28.3,29.61,SSW,200,1.0,3.0,90,0.00,,,0.00,Wunderground v.1.15,2014-01-20 20:12:00,
2014-01-20 15:14:00,30.9,28.3,29.61,SW,218,2.0,3.0,90,0.00,,,0.00,Wunderground v.1.15,2014-01-20 20:14:00,
2014-01-20 15:15:00,30.9,28.3,29.60,West,263,4.0,4.0,90,0.00,,,0.00,Wunderground v.1.15,2014-01-20 20:15:00,
2014-01-20 15:17:00,30.9,28.3,29.60,SSW,193,2.0,4.0,90,0.00,,,0.00,Wunderground v.1.15,2014-01-20 20:17:00,
2014-01-20 15:19:00,30.9,28.6,29.60,WSW,245,1.0,4.0,91,0.00,,,0.00,Wunderground v.1.15,2014-01-20 20:19:00,
2014-01-20 15:20:00,30.9,28.6,29.60,WSW,246,2.0,2.0,91,0.00,,,0.00,Wunderground v.1.15,2014-01-20 20:20:00,
2014-01-20 15:22:00,30.7,28.4,29.60,SW,229,0.0,3.0,91,0.00,,,0.00,Wunderground v.1.15,2014-01-20 20:22:00,
2014-01-20 15:23:00,30.8,28.5,29.60,SW,224,2.0,3.0,91,0.00,,,0.00,Wunderground v.1.15,2014-01-20 20:23:00,
2014-01-20 15:25:00,30.7,28.4,29.60,South,187,4.0,5.0,91,0.00,,,0.00,Wunderground v.1.15,2014-01-20 20:25:00,
2014-01-20 15:27:00,30.6,28.3,29.60,WSW,257,1.0,5.0,91,0.00,,,0.00,Wunderground v.1.15,2014-01-20 20:27:00,
2014-01-20 15:28:00,30.7,28.4,29.60,SW,229,1.0,5.0,91,0.00,,,0.00,Wunderground v.1.15,2014-01-20 20:28:00,
2014-01-20 15:30:00,30.6,28.3,29.61,West,259,1.0,4.0,91,0.00,,,0.00,Wunderground v.1.15,2014-01-20 20:30:00,
2014-01-20 15:32:00,30.6,28.3,29.61,SW,226,2.0,4.0,91,0.00,,,0.00,Wunderground v.1.15,2014-01-20 20:32:00,
2014-01-20 15:33:00,30.6,28.3,29.61,SW,226,0.0,4.0,91,0.00,,,0.00,Wunderground v.1.15,2014-01-20 20:33:00,
2014-01-20 15:35:00,30.5,28.2,29.61,SW,232,0.0,4.0,91,0.00,,,0.00,Wunderground v.1.15,2014-01-20 20:35:00,
2014-01-20 15:37:00,30.5,28.2,29.61,WSW,252,1.0,6.0,91,0.00,,,0.00,Wunderground v.1.15,2014-01-20 20:37:00,
2014-01-20 15:38:00,30.5,28.2,29.62,West,277,1.0,6.0,91,0.00,,,0.00,Wunderground v.1.15,2014-01-20 20:38:00,
2014-01-20 15:39:00,30.5,28.2,29.61,South,183,1.0,6.0,91,0.00,,,0.00,Wunderground v.1.15,2014-01-20 20:39:00,
2014-01-20 15:40:00,30.5,28.2,29.62,WSW,238,2.0,2.0,91,0.00,,,0.00,Wunderground v.1.15,2014-01-20 20:40:00,
2014-01-20 15:41:00,30.4,28.1,29.62,SW,226,3.0,3.0,91,0.00,,,0.00,Wunderground v.1.15,2014-01-20 20:41:00,
2014-01-20 15:42:00,30.4,27.8,29.62,WSW,241,1.0,3.0,90,0.00,,,0.00,Wunderground v.1.15,2014-01-20 20:42:00,
2014-01-20 15:43:00,30.4,27.8,29.62,West,266,1.0,3.0,90,0.00,,,0.00,Wunderground v.1.15,2014-01-20 20:43:00,
2014-01-20 15:45:00,30.3,27.7,29.62,SW,232,1.0,3.0,90,0.00,,,0.00,Wunderground v.1.15,2014-01-20 20:45:00,
2014-01-20 15:47:00,30.3,27.7,29.63,West,260,1.0,3.0,90,0.00,,,0.00,Wunderground v.1.15,2014-01-20 20:47:00,
2014-01-20 15:48:00,30.3,27.7,29.63,SW,224,2.0,3.0,90,0.00,,,0.00,Wunderground v.1.15,2014-01-20 20:48:00,
2014-01-20 15:50:00,30.3,27.7,29.63,WSW,239,0.0,1.0,90,0.00,,,0.00,Wunderground v.1.15,2014-01-20 20:50:00,
2014-01-20 15:53:00,30.2,27.6,29.63,SSW,212,0.0,2.0,90,0.00,,,0.00,Wunderground v.1.15,2014-01-20 20:53:00,
2014-01-20 15:55:00,30.2,27.9,29.63,WSW,257,1.0,3.0,91,0.00,,,0.00,Wunderground v.1.15,2014-01-20 20:55:00,
2014-01-20 15:58:00,30.1,27.8,29.63,WSW,241,2.0,5.0,91,0.00,,,0.00,Wunderground v.1.15,2014-01-20 20:58:00,
2014-01-20 15:59:00,30.1,27.8,29.63,WSW,257,3.0,5.0,91,0.00,,,0.00,Wunderground v.1.15,2014-01-20 20:59:00,
2014-01-20 16:01:00,30.0,27.7,29.63,SSW,210,2.0,4.0,91,0.00,,,0.00,Wunderground v.1.15,2014-01-20 21:01:00,
2014-01-20 16:03:00,29.9,27.6,29.64,South,183,5.0,5.0,91,0.00,,,0.00,Wunderground v.1.15,2014-01-20 21:03:00,
2014-01-20 16:04:00,29.8,27.5,29.64,West,273,4.0,6.0,91,0.00,,,0.00,Wunderground v.1.15,2014-01-20 21:04:00,
2014-01-20 16:07:00,29.7,27.7,29.64,SW,224,1.0,6.0,92,0.00,,,0.00,Wunderground v.1.15,2014-01-20 21:07:00,
2014-01-20 16:08:00,29.7,27.7,29.64,SW,217,0.0,6.0,92,0.00,,,0.00,Wunderground v.1.15,2014-01-20 21:08:00,
2014-01-20 16:09:00,29.6,27.6,29.64,WSW,245,2.0,6.0,92,0.00,,,0.00,Wunderground v.1.15,2014-01-20 21:09:00,
2014-01-20 16:12:00,29.6,27.8,29.64,SW,221,2.0,4.0,93,0.00,,,0.00,Wunderground v.1.15,2014-01-20 21:12:00,
2014-01-20 16:13:00,29.6,27.8,29.64,WSW,239,1.0,4.0,93,0.00,,,0.00,Wunderground v.1.15,2014-01-20 21:13:00,
2014-01-20 16:14:00,29.6,27.8,29.64,SSW,204,0.0,4.0,93,0.00,,,0.00,Wunderground v.1.15,2014-01-20 21:14:00,
2014-01-20 16:17:00,29.5,27.7,29.65,WSW,252,0.0,5.0,93,0.00,,,0.00,Wunderground v.1.15,2014-01-20 21:17:00,
2014-01-20 16:19:00,29.5,27.7,29.65,West,266,2.0,5.0,93,0.00,,,0.00,Wunderground v.1.15,2014-01-20 21:19:00,
2014-01-20 16:22:00,29.4,27.6,29.65,WSW,245,1.0,5.0,93,0.00,,,0.00,Wunderground v.1.15,2014-01-20 21:22:00,
2014-01-20 16:24:00,29.4,27.6,29.65,WSW,245,1.0,5.0,93,0.00,,,0.00,Wunderground v.1.15,2014-01-20 21:24:00,
2014-01-20 16:25:00,29.4,27.4,29.65,West,274,3.0,6.0,92,0.00,,,0.00,Wunderground v.1.15,2014-01-20 21:25:00,
2014-01-20 16:27:00,29.3,27.3,29.65,NNW,345,1.0,6.0,92,0.00,,,0.00,Wunderground v.1.15,2014-01-20 21:27:00,
2014-01-20 16:28:00,29.3,27.3,29.65,North,360,1.0,6.0,92,0.00,,,0.00,Wunderground v.1.15,2014-01-20 21:28:00,
2014-01-20 16:29:00,29.3,27.3,29.66,South,169,1.0,6.0,92,0.00,,,0.00,Wunderground v.1.15,2014-01-20 21:29:00,
2014-01-20 16:30:00,29.3,27.3,29.66,West,261,1.0,2.0,92,0.00,,,0.00,Wunderground v.1.15,2014-01-20 21:30:00,
2014-01-20 16:33:00,29.2,26.9,29.66,SW,214,1.0,2.0,91,0.00,,,0.00,Wunderground v.1.15,2014-01-20 21:33:00,
2014-01-20 16:34:00,29.2,26.6,29.66,SW,229,3.0,6.0,90,0.00,,,0.00,Wunderground v.1.15,2014-01-20 21:34:00,
2014-01-20 16:35:00,29.1,26.5,29.66,SW,229,1.0,6.0,90,0.00,,,0.00,Wunderground v.1.15,2014-01-20 21:35:00,
2014-01-20 16:36:00,29.1,26.5,29.66,SW,229,0.0,6.0,90,0.00,,,0.00,Wunderground v.1.15,2014-01-20 21:36:00,
2014-01-20 16:38:00,29.0,26.4,29.66,SW,218,1.0,6.0,90,0.00,,,0.00,Wunderground v.1.15,2014-01-20 21:38:00,
2014-01-20 16:39:00,29.0,26.2,29.67,South,183,1.0,6.0,89,0.00,,,0.00,Wunderground v.1.15,2014-01-20 21:39:00,
2014-01-20 16:41:00,28.9,26.1,29.66,WSW,252,2.0,4.0,89,0.00,,,0.00,Wunderground v.1.15,2014-01-20 21:41:00,
2014-01-20 16:43:00,28.9,26.1,29.67,West,271,1.0,6.0,89,0.00,,,0.00,Wunderground v.1.15,2014-01-20 21:43:00,
2014-01-20 16:44:00,28.9,26.1,29.67,SW,222,1.0,6.0,89,0.00,,,0.00,Wunderground v.1.15,2014-01-20 21:44:00,
2014-01-20 16:46:00,28.8,25.7,29.67,WSW,255,0.0,6.0,88,0.00,,,0.00,Wunderground v.1.15,2014-01-20 21:46:00,
2014-01-20 16:48:00,28.8,25.7,29.67,West,260,0.0,6.0,88,0.00,,,0.00,Wunderground v.1.15,2014-01-20 21:48:00,
2014-01-20 16:49:00,28.7,25.6,29.67,South,184,1.0,6.0,88,0.00,,,0.00,Wunderground v.1.15,2014-01-20 21:49:00,
2014-01-20 16:51:00,28.7,25.6,29.68,South,183,2.0,5.0,88,0.00,,,0.00,Wunderground v.1.15,2014-01-20 21:51:00,
2014-01-20 16:53:00,28.7,25.6,29.68,NNW,333,0.0,5.0,88,0.00,,,0.00,Wunderground v.1.15,2014-01-20 21:53:00,
2014-01-20 16:54:00,28.7,25.6,29.68,NNW,333,0.0,5.0,88,0.00,,,0.00,Wunderground v.1.15,2014-01-20 21:54:00,
2014-01-20 16:56:00,28.7,25.3,29.68,SW,229,1.0,10.0,87,0.00,,,0.00,Wunderground v.1.15,2014-01-20 21:56:00,
2014-01-20 16:57:00,28.7,25.3,29.68,SW,224,1.0,10.0,87,0.00,,,0.00,Wunderground v.1.15,2014-01-20 21:57:00,
2014-01-20 16:58:00,28.7,25.3,29.68,NW,314,1.0,10.0,87,0.00,,,0.00,Wunderground v.1.15,2014-01-20 21:58:00,
2014-01-20 16:59:00,28.7,25.0,29.68,NW,315,1.0,10.0,86,0.00,,,0.00,Wunderground v.1.15,2014-01-20 21:59:00,
2014-01-20 17:00:00,28.7,25.3,29.68,SSW,200,1.0,1.0,87,0.00,,,0.00,Wunderground v.1.15,2014-01-20 22:00:00,
2014-01-20 17:02:00,28.6,25.2,29.68,SSW,207,0.0,2.0,87,0.00,,,0.00,Wunderground v.1.15,2014-01-20 22:02:00,
2014-01-20 17:04:00,28.6,25.5,29.68,SSW,208,0.0,2.0,88,0.00,,,0.00,Wunderground v.1.15,2014-01-20 22:04:00,
2014-01-20 17:05:00,28.6,25.5,29.69,WSW,254,1.0,2.0,88,0.00,,,0.00,Wunderground v.1.15,2014-01-20 22:05:00,
2014-01-20 17:07:00,28.5,25.4,29.69,South,191,1.0,2.0,88,0.00,,,0.00,Wunderground v.1.15,2014-01-20 22:07:00,
2014-01-20 17:08:00,28.5,25.4,29.69,SW,215,0.0,2.0,88,0.00,,,0.00,Wunderground v.1.15,2014-01-20 22:08:00,
2014-01-20 17:09:00,28.4,25.3,29.69,South,183,0.0,2.0,88,0.00,,,0.00,Wunderground v.1.15,2014-01-20 22:09:00,
2014-01-20 17:10:00,28.4,25.3,29.69,South,183,1.0,1.0,88,0.00,,,0.00,Wunderground v.1.15,2014-01-20 22:10:00,
2014-01-20 17:13:00,28.4,25.3,29.69,South,183,2.0,2.0,88,0.00,,,0.00,Wunderground v.1.15,2014-01-20 22:13:00,
2014-01-20 17:14:00,28.4,25.6,29.70,SW,218,0.0,2.0,89,0.00,,,0.00,Wunderground v.1.15,2014-01-20 22:14:00,
2014-01-20 17:15:00,28.4,25.3,29.70,South,183,1.0,2.0,88,0.00,,,0.00,Wunderground v.1.15,2014-01-20 22:15:00,
2014-01-20 17:18:00,28.3,25.2,29.70,South,183,0.0,5.0,88,0.00,,,0.00,Wunderground v.1.15,2014-01-20 22:18:00,
2014-01-20 17:19:00,28.3,25.2,29.70,South,183,1.0,5.0,88,0.00,,,0.00,Wunderground v.1.15,2014-01-20 22:19:00,
2014-01-20 17:20:00,28.2,24.8,29.70,South,183,0.0,1.0,87,0.00,,,0.00,Wunderground v.1.15,2014-01-20 22:20:00,
2014-01-20 17:24:00,28.0,24.1,29.71,ENE,65,0.0,3.0,85,0.00,,,0.00,Wunderground v.1.15,2014-01-20 22:24:00,
2014-01-20 17:25:00,27.8,23.9,29.71,East,81,4.0,4.0,85,0.00,,,0.00,Wunderground v.1.15,2014-01-20 22:25:00,
2014-01-20 17:26:00,27.8,23.9,29.71,SE,129,1.0,4.0,85,0.00,,,0.00,Wunderground v.1.15,2014-01-20 22:26:00,
2014-01-20 17:29:00,27.5,23.6,29.71,East,83,3.0,4.0,85,0.00,,,0.00,Wunderground v.1.15,2014-01-20 22:29:00,
2014-01-20 17:30:00,27.3,23.1,29.72,ESE,122,2.0,3.0,84,0.00,,,0.00,Wunderground v.1.15,2014-01-20 22:30:00,
2014-01-20 17:31:00,27.3,23.1,29.72,South,169,0.0,3.0,84,0.00,,,0.00,Wunderground v.1.15,2014-01-20 22:31:00,
2014-01-20 17:34:00,26.9,22.7,29.72,East,81,3.0,4.0,84,0.00,,,0.00,Wunderground v.1.15,2014-01-20 22:34:00,
2014-01-20 17:35:00,26.7,22.2,29.72,South,169,0.0,5.0,83,0.00,,,0.00,Wunderground v.1.15,2014-01-20 22:35:00,
2014-01-20 17:36:00,26.5,22.3,29.72,ENE,72,1.0,5.0,84,0.00,,,0.00,Wunderground v.1.15,2014-01-20 22:36:00,
2014-01-20 17:37:00,26.5,22.3,29.72,ENE,72,0.0,5.0,84,0.00,,,0.00,Wunderground v.1.15,2014-01-20 22:37:00,
2014-01-20 17:39:00,26.2,21.7,29.72,South,169,0.0,6.0,83,0.00,,,0.00,Wunderground v.1.15,2014-01-20 22:39:00,
2014-01-20 17:41:00,26.0,21.5,29.72,South,169,0.0,1.0,83,0.00,,,0.00,Wunderground v.1.15,2014-01-20 22:41:00,
2014-01-20 17:42:00,25.9,21.4,29.72,South,169,0.0,1.0,83,0.00,,,0.00,Wunderground v.1.15,2014-01-20 22:42:00,
2014-01-20 17:44:00,25.7,21.0,29.73,SE,144,1.0,1.0,82,0.00,,,0.00,Wunderground v.1.15,2014-01-20 22:44:00,
2014-01-20 17:45:00,25.7,21.3,29.73,ENE,71,3.0,4.0,83,0.00,,,0.00,Wunderground v.1.15,2014-01-20 22:45:00,
2014-01-20 17:46:00,25.6,21.2,29.73,ENE,71,1.0,4.0,83,0.00,,,0.00,Wunderground v.1.15,2014-01-20 22:46:00,
2014-01-20 17:47:00,25.5,21.1,29.73,SE,144,0.0,4.0,83,0.00,,,0.00,Wunderground v.1.15,2014-01-20 22:47:00,
2014-01-20 17:50:00,25.4,20.7,29.73,SSE,154,1.0,1.0,82,0.00,,,0.00,Wunderground v.1.15,2014-01-20 22:50:00,
2014-01-20 17:51:00,25.3,20.9,29.73,South,169,1.0,1.0,83,0.00,,,0.00,Wunderground v.1.15,2014-01-20 22:51:00,
2014-01-20 17:52:00,25.2,20.8,29.74,SSE,167,1.0,1.0,83,0.00,,,0.00,Wunderground v.1.15,2014-01-20 22:52:00,
2014-01-20 17:55:00,25.1,20.4,29.74,SSE,158,0.0,3.0,82,0.00,,,0.00,Wunderground v.1.15,2014-01-20 22:55:00,
2014-01-20 17:56:00,25.0,20.3,29.74,ESE,109,1.0,3.0,82,0.00,,,0.00,Wunderground v.1.15,2014-01-20 22:56:00,
2014-01-20 17:58:00,24.9,20.2,29.74,East,92,0.0,3.0,82,0.00,,,0.00,Wunderground v.1.15,2014-01-20 22:58:00,
2014-01-20 18:01:00,24.6,19.6,29.74,SSE,167,1.0,1.0,81,0.00,,,0.00,Wunderground v.1.15,2014-01-20 23:01:00,
2014-01-20 18:02:00,24.6,19.6,29.74,South,169,2.0,2.0,81,0.00,,,0.00,Wunderground v.1.15,2014-01-20 23:02:00,
2014-01-20 18:03:00,24.6,19.6,29.74,South,169,0.0,2.0,81,0.00,,,0.00,Wunderground v.1.15,2014-01-20 23:03:00,
2014-01-20 18:04:00,24.5,19.5,29.74,SSE,166,0.0,2.0,81,0.00,,,0.00,Wunderground v.1.15,2014-01-20 23:04:00,
2014-01-20 18:06:00,24.4,19.7,29.74,SSE,167,0.0,2.0,82,0.00,,,0.00,Wunderground v.1.15,2014-01-20 23:06:00,
2014-01-20 18:07:00,24.4,19.7,29.74,SSE,167,1.0,2.0,82,0.00,,,0.00,Wunderground v.1.15,2014-01-20 23:07:00,
2014-01-20 18:08:00,24.4,19.7,29.74,South,169,0.0,3.0,82,0.00,,,0.00,Wunderground v.1.15,2014-01-20 23:08:00,
2014-01-20 18:09:00,24.3,19.3,29.74,SSE,167,0.0,3.0,81,0.00,,,0.00,Wunderground v.1.15,2014-01-20 23:09:00,
2014-01-20 18:11:00,24.2,19.2,29.75,SSE,167,0.0,0.0,81,0.00,,,0.00,Wunderground v.1.15,2014-01-20 23:11:00,
2014-01-20 18:12:00,24.2,19.2,29.75,South,169,0.0,0.0,81,0.00,,,0.00,Wunderground v.1.15,2014-01-20 23:12:00,
2014-01-20 18:13:00,24.2,19.2,29.75,South,169,0.0,2.0,81,0.00,,,0.00,Wunderground v.1.15,2014-01-20 23:13:00,
2014-01-20 18:15:00,24.1,19.4,29.75,SSE,167,1.0,2.0,82,0.00,,,0.00,Wunderground v.1.15,2014-01-20 23:15:00,
2014-01-20 18:16:00,24.0,19.0,29.75,South,169,0.0,2.0,81,0.00,,,0.00,Wunderground v.1.15,2014-01-20 23:16:00,
2014-01-20 18:17:00,24.0,19.0,29.75,SSE,167,0.0,2.0,81,0.00,,,0.00,Wunderground v.1.15,2014-01-20 23:17:00,
2014-01-20 18:18:00,24.0,19.0,29.75,South,169,0.0,2.0,81,0.00,,,0.00,Wunderground v.1.15,2014-01-20 23:18:00,
2014-01-20 18:20:00,23.9,18.9,29.75,South,169,0.0,0.0,81,0.00,,,0.00,Wunderground v.1.15,2014-01-20 23:20:00,
2014-01-20 18:21:00,23.9,18.9,29.75,SSE,167,0.0,0.0,81,0.00,,,0.00,Wunderground v.1.15,2014-01-20 23:21:00,
2014-01-20 18:22:00,23.9,18.9,29.76,SSE,167,0.0,0.0,81,0.00,,,0.00,Wunderground v.1.15,2014-01-20 23:22:00,
2014-01-20 18:23:00,23.8,19.1,29.76,South,169,0.0,0.0,82,0.00,,,0.00,Wunderground v.1.15,2014-01-20 23:23:00,
2014-01-20 18:25:00,23.8,19.1,29.75,SSE,167,0.0,0.0,82,0.00,,,0.00,Wunderground v.1.15,2014-01-20 23:25:00,
2014-01-20 18:26:00,23.7,19.0,29.76,East,91,1.0,6.0,82,0.00,,,0.00,Wunderground v.1.15,2014-01-20 23:26:00,
2014-01-20 18:28:00,23.7,19.0,29.76,NW,314,1.0,6.0,82,0.00,,,0.00,Wunderground v.1.15,2014-01-20 23:28:00,
2014-01-20 18:30:00,23.5,18.5,29.76,WSW,249,1.0,1.0,81,0.00,,,0.00,Wunderground v.1.15,2014-01-20 23:30:00,
2014-01-20 18:31:00,23.4,18.4,29.76,SSW,208,0.0,3.0,81,0.00,,,0.00,Wunderground v.1.15,2014-01-20 23:31:00,
2014-01-20 18:33:00,23.3,18.3,29.76,WSW,243,2.0,3.0,81,0.00,,,0.00,Wunderground v.1.15,2014-01-20 23:33:00,
2014-01-20 18:34:00,23.2,18.2,29.76,SSW,197,1.0,3.0,81,0.00,,,0.00,Wunderground v.1.15,2014-01-20 23:34:00,
2014-01-20 18:35:00,23.1,18.1,29.76,South,183,0.0,3.0,81,0.00,,,0.00,Wunderground v.1.15,2014-01-20 23:35:00,
2014-01-20 18:36:00,23.0,18.0,29.76,SW,214,1.0,4.0,81,0.00,,,0.00,Wunderground v.1.15,2014-01-20 23:36:00,
2014-01-20 18:38:00,22.9,17.9,29.77,South,183,1.0,4.0,81,0.00,,,0.00,Wunderground v.1.15,2014-01-20 23:38:00,
2014-01-20 18:39:00,22.8,17.8,29.77,South,183,1.0,4.0,81,0.00,,,0.00,Wunderground v.1.15,2014-01-20 23:39:00,
2014-01-20 18:40:00,22.7,17.7,29.77,SSW,198,0.0,1.0,81,0.00,,,0.00,Wunderground v.1.15,2014-01-20 23:40:00,
2014-01-20 18:42:00,22.6,17.6,29.77,SW,222,0.0,3.0,81,0.00,,,0.00,Wunderground v.1.15,2014-01-20 23:42:00,
2014-01-20 18:43:00,22.5,17.5,29.77,South,187,3.0,3.0,81,0.00,,,0.00,Wunderground v.1.15,2014-01-20 23:43:00,
2014-01-20 18:44:00,22.5,17.5,29.77,South,183,2.0,3.0,81,0.00,,,0.00,Wunderground v.1.15,2014-01-20 23:44:00,
2014-01-20 18:45:00,22.4,17.5,29.77,SW,226,1.0,3.0,81,0.00,,,0.00,Wunderground v.1.15,2014-01-20 23:45:00,
2014-01-20 18:47:00,22.3,17.4,29.77,South,183,0.0,3.0,81,0.00,,,0.00,Wunderground v.1.15,2014-01-20 23:47:00,
2014-01-20 18:48:00,22.1,17.2,29.77,South,183,0.0,3.0,81,0.00,,,0.00,Wunderground v.1.15,2014-01-20 23:48:00,
2014-01-20 18:49:00,22.1,17.2,29.77,South,183,0.0,3.0,81,0.00,,,0.00,Wunderground v.1.15,2014-01-20 23:49:00,
2014-01-20 18:50:00,22.0,17.1,29.77,WSW,240,4.0,4.0,81,0.00,,,0.00,Wunderground v.1.15,2014-01-20 23:50:00,
2014-01-20 18:52:00,21.9,17.0,29.77,South,183,1.0,4.0,81,0.00,,,0.00,Wunderground v.1.15,2014-01-20 23:52:00,
2014-01-20 18:54:00,21.7,16.8,29.77,SSW,211,3.0,4.0,81,0.00,,,0.00,Wunderground v.1.15,2014-01-20 23:54:00,
2014-01-20 18:55:00,21.6,16.7,29.77,SW,218,1.0,4.0,81,0.00,,,0.00,Wunderground v.1.15,2014-01-20 23:55:00,
2014-01-20 18:57:00,21.4,16.2,29.77,South,183,4.0,4.0,80,0.00,,,0.00,Wunderground v.1.15,2014-01-20 23:57:00,
2014-01-20 18:59:00,21.2,16.3,29.77,SW,217,1.0,4.0,81,0.00,,,0.00,Wunderground v.1.15,2014-01-20 23:59:00,
2014-01-20 19:01:00,21.1,16.2,29.77,WSW,257,1.0,2.0,81,0.00,,,0.00,Wunderground v.1.15,2014-01-21 00:01:00,
2014-01-20 19:02:00,20.9,16.0,29.78,WSW,245,0.0,2.0,81,0.00,,,0.00,Wunderground v.1.15,2014-01-21 00:02:00,
2014-01-20 19:03:00,20.9,16.0,29.78,WSW,245,0.0,2.0,81,0.00,,,0.00,Wunderground v.1.15,2014-01-21 00:03:00,
2014-01-20 19:04:00,20.7,15.8,29.78,SW,232,0.0,2.0,81,0.00,,,0.00,Wunderground v.1.15,2014-01-21 00:04:00,
2014-01-20 19:05:00,20.7,15.8,29.78,SSW,204,4.0,5.0,81,0.00,,,0.00,Wunderground v.1.15,2014-01-21 00:05:00,
2014-01-20 19:06:00,20.6,15.7,29.78,SSW,199,0.0,5.0,81,0.00,,,0.00,Wunderground v.1.15,2014-01-21 00:06:00,
2014-01-20 19:07:00,20.5,15.6,29.78,South,181,3.0,5.0,81,0.00,,,0.00,Wunderground v.1.15,2014-01-21 00:07:00,
2014-01-20 19:08:00,20.4,15.5,29.78,South,181,1.0,5.0,81,0.00,,,0.00,Wunderground v.1.15,2014-01-21 00:08:00,
2014-01-20 19:09:00,20.4,15.5,29.78,SSW,210,0.0,5.0,81,0.00,,,0.00,Wunderground v.1.15,2014-01-21 00:09:00,
2014-01-20 19:10:00,20.4,15.5,29.78,SW,235,2.0,6.0,81,0.00,,,0.00,Wunderground v.1.15,2014-01-21 00:10:00,
2014-01-20 19:12:00,20.3,15.4,29.78,WNW,298,1.0,6.0,81,0.00,,,0.00,Wunderground v.1.15,2014-01-21 00:12:00,
2014-01-20 19:13:00,20.2,15.6,29.78,WNW,298,0.0,6.0,82,0.00,,,0.00,Wunderground v.1.15,2014-01-21 00:13:00,
2014-01-20 19:15:00,20.1,15.2,29.78,ENE,65,1.0,6.0,81,0.00,,,0.00,Wunderground v.1.15,2014-01-21 00:15:00,
2014-01-20 19:17:00,20.0,15.1,29.78,SE,144,1.0,6.0,81,0.00,,,0.00,Wunderground v.1.15,2014-01-21 00:17:00,
2014-01-20 19:18:00,20.0,15.4,29.78,SSE,167,1.0,6.0,82,0.00,,,0.00,Wunderground v.1.15,2014-01-21 00:18:00,
2014-01-20 19:20:00,19.8,14.9,29.79,East,96,2.0,2.0,81,0.00,,,0.00,Wunderground v.1.15,2014-01-21 00:20:00,
2014-01-20 19:21:00,19.8,14.9,29.79,ENE,70,3.0,6.0,81,0.00,,,0.00,Wunderground v.1.15,2014-01-21 00:21:00,
2014-01-20 19:22:00,19.7,15.1,29.79,South,182,0.0,6.0,82,0.00,,,0.00,Wunderground v.1.15,2014-01-21 00:22:00,
2014-01-20 19:23:00,19.6,15.0,29.79,South,181,0.0,6.0,82,0.00,,,0.00,Wunderground v.1.15,2014-01-21 00:23:00,
2014-01-20 19:24:00,19.6,15.0,29.79,South,181,2.0,6.0,82,0.00,,,0.00,Wunderground v.1.15,2014-01-21 00:24:00,
2014-01-20 19:25:00,19.6,14.7,29.79,WSW,252,0.0,6.0,81,0.00,,,0.00,Wunderground v.1.15,2014-01-21 00:25:00,
2014-01-20 19:26:00,19.5,14.6,29.79,SW,215,0.0,6.0,81,0.00,,,0.00,Wunderground v.1.15,2014-01-21 00:26:00,
2014-01-20 19:28:00,19.5,14.6,29.79,South,181,1.0,6.0,81,0.00,,,0.00,Wunderground v.1.15,2014-01-21 00:28:00,
2014-01-20 19:29:00,19.4,14.5,29.79,South,183,2.0,6.0,81,0.00,,,0.00,Wunderground v.1.15,2014-01-21 00:29:00,
2014-01-20 19:30:00,19.4,14.5,29.79,South,181,5.0,5.0,81,0.00,,,0.00,Wunderground v.1.15,2014-01-21 00:30:00,
2014-01-20 19:31:00,19.4,14.5,29.79,South,183,4.0,5.0,81,0.00,,,0.00,Wunderground v.1.15,2014-01-21 00:31:00,
2014-01-20 19:33:00,19.2,14.3,29.79,South,181,1.0,6.0,81,0.00,,,0.00,Wunderground v.1.15,2014-01-21 00:33:00,
2014-01-20 19:34:00,19.2,14.3,29.79,South,182,0.0,6.0,81,0.00,,,0.00,Wunderground v.1.15,2014-01-21 00:34:00,
2014-01-20 19:35:00,19.2,14.3,29.79,SSW,196,0.0,6.0,81,0.00,,,0.00,Wunderground v.1.15,2014-01-21 00:35:00,
2014-01-20 19:36:00,19.1,14.2,29.79,SSW,197,0.0,6.0,81,0.00,,,0.00,Wunderground v.1.15,2014-01-21 00:36:00,
2014-01-20 19:38:00,19.0,14.1,29.80,South,181,2.0,6.0,81,0.00,,,0.00,Wunderground v.1.15,2014-01-21 00:38:00,
2014-01-20 19:39:00,19.0,14.1,29.80,South,181,2.0,6.0,81,0.00,,,0.00,Wunderground v.1.15,2014-01-21 00:39:00,
2014-01-20 19:40:00,18.9,14.0,29.80,South,182,2.0,2.0,81,0.00,,,0.00,Wunderground v.1.15,2014-01-21 00:40:00,
2014-01-20 19:41:00,18.9,14.0,29.80,South,181,1.0,3.0,81,0.00,,,0.00,Wunderground v.1.15,2014-01-21 00:41:00,
2014-01-20 19:42:00,18.8,13.9,29.80,SSE,148,1.0,3.0,81,0.00,,,0.00,Wunderground v.1.15,2014-01-21 00:42:00,
2014-01-20 19:43:00,18.8,13.9,29.80,ESE,109,2.0,3.0,81,0.00,,,0.00,Wunderground v.1.15,2014-01-21 00:43:00,
2014-01-20 19:44:00,18.8,13.9,29.80,East,91,2.0,3.0,81,0.00,,,0.00,Wunderground v.1.15,2014-01-21 00:44:00,
2014-01-20 19:46:00,18.6,13.7,29.80,SSE,167,1.0,3.0,81,0.00,,,0.00,Wunderground v.1.15,2014-01-21 00:46:00,
2014-01-20 19:47:00,18.6,13.7,29.80,SE,142,0.0,3.0,81,0.00,,,0.00,Wunderground v.1.15,2014-01-21 00:47:00,
2014-01-20 19:49:00,18.6,14.0,29.80,ESE,112,2.0,6.0,82,0.00,,,0.00,Wunderground v.1.15,2014-01-21 00:49:00,
2014-01-20 19:51:00,18.4,13.8,29.80,ENE,65,2.0,2.0,82,0.00,,,0.00,Wunderground v.1.15,2014-01-21 00:51:00,
2014-01-20 19:53:00,18.4,13.8,29.81,SSE,167,0.0,4.0,82,0.00,,,0.00,Wunderground v.1.15,2014-01-21 00:53:00,
2014-01-20 19:54:00,18.4,13.8,29.81,SSE,167,1.0,4.0,82,0.00,,,0.00,Wunderground v.1.15,2014-01-21 00:54:00,
2014-01-20 19:56:00,18.3,13.7,29.81,SSE,167,1.0,4.0,82,0.00,,,0.00,Wunderground v.1.15,2014-01-21 00:56:00,
2014-01-20 19:57:00,18.3,13.7,29.81,SSE,167,0.0,4.0,82,0.00,,,0.00,Wunderground v.1.15,2014-01-21 00:57:00,
2014-01-20 19:58:00,18.2,13.6,29.81,SE,139,1.0,4.0,82,0.00,,,0.00,Wunderground v.1.15,2014-01-21 00:58:00,
2014-01-20 19:59:00,18.2,13.6,29.82,SE,138,1.0,4.0,82,0.00,,,0.00,Wunderground v.1.15,2014-01-21 00:59:00,
2014-01-20 20:02:00,18.2,13.6,29.82,East,98,2.0,2.0,82,0.00,,,0.00,Wunderground v.1.15,2014-01-21 01:02:00,
2014-01-20 20:04:00,18.2,13.6,29.82,SE,143,1.0,4.0,82,0.00,,,0.00,Wunderground v.1.15,2014-01-21 01:04:00,
2014-01-20 20:05:00,18.2,13.6,29.82,SSE,167,2.0,4.0,82,0.00,,,0.00,Wunderground v.1.15,2014-01-21 01:05:00,
2014-01-20 20:07:00,18.2,13.6,29.82,SSE,167,0.0,6.0,82,0.00,,,0.00,Wunderground v.1.15,2014-01-21 01:07:00,
2014-01-20 20:08:00,18.2,13.3,29.82,East,86,3.0,6.0,81,0.00,,,0.00,Wunderground v.1.15,2014-01-21 01:08:00,
2014-01-20 20:09:00,18.1,13.3,29.82,SSE,167,0.0,6.0,81,0.00,,,0.00,Wunderground v.1.15,2014-01-21 01:09:00,
2014-01-20 20:10:00,18.0,13.2,29.82,SSE,167,2.0,2.0,81,0.00,,,0.00,Wunderground v.1.15,2014-01-21 01:10:00,
2014-01-20 20:12:00,17.9,13.1,29.82,SE,138,1.0,3.0,81,0.00,,,0.00,Wunderground v.1.15,2014-01-21 01:12:00,
2014-01-20 20:13:00,17.8,12.7,29.83,SSE,167,1.0,3.0,80,0.00,,,0.00,Wunderground v.1.15,2014-01-21 01:13:00,
2014-01-20 20:14:00,17.8,12.7,29.83,East,96,5.0,8.0,80,0.00,,,0.00,Wunderground v.1.15,2014-01-21 01:14:00,
2014-01-20 20:15:00,17.7,12.6,29.83,ENE,57,0.0,8.0,80,0.00,,,0.00,Wunderground v.1.15,2014-01-21 01:15:00,
2014-01-20 20:17:00,17.5,12.4,29.83,SSE,166,1.0,8.0,80,0.00,,,0.00,Wunderground v.1.15,2014-01-21 01:17:00,
2014-01-20 20:18:00,17.5,12.4,29.83,SSE,167,0.0,8.0,80,0.00,,,0.00,Wunderground v.1.15,2014-01-21 01:18:00,
2014-01-20 20:19:00,17.4,12.3,29.83,North,358,1.0,8.0,80,0.00,,,0.00,Wunderground v.1.15,2014-01-21 01:19:00,
2014-01-20 20:20:00,17.3,11.9,29.83,WNW,295,0.0,1.0,79,0.00,,,0.00,Wunderground v.1.15,2014-01-21 01:20:00,
2014-01-20 20:22:00,17.1,11.7,29.83,SSE,166,0.0,4.0,79,0.00,,,0.00,Wunderground v.1.15,2014-01-21 01:22:00,
2014-01-20 20:23:00,17.1,11.7,29.83,East,84,3.0,4.0,79,0.00,,,0.00,Wunderground v.1.15,2014-01-21 01:23:00,
2014-01-20 20:24:00,17.0,11.6,29.83,SE,131,1.0,4.0,79,0.00,,,0.00,Wunderground v.1.15,2014-01-21 01:24:00,
2014-01-20 20:25:00,16.9,11.5,29.83,East,90,2.0,4.0,79,0.00,,,0.00,Wunderground v.1.15,2014-01-21 01:25:00,
2014-01-20 20:27:00,16.7,11.3,29.84,SSE,167,0.0,5.0,79,0.00,,,0.00,Wunderground v.1.15,2014-01-21 01:27:00,
2014-01-20 20:28:00,16.7,11.3,29.84,SSE,167,0.0,5.0,79,0.00,,,0.00,Wunderground v.1.15,2014-01-21 01:28:00,
2014-01-20 20:29:00,16.5,11.1,29.84,SSE,167,2.0,6.0,79,0.00,,,0.00,Wunderground v.1.15,2014-01-21 01:29:00,
2014-01-20 20:30:00,16.5,11.1,29.84,SSE,166,2.0,2.0,79,0.00,,,0.00,Wunderground v.1.15,2014-01-21 01:30:00,
2014-01-20 20:31:00,16.4,11.0,29.84,SSE,167,0.0,2.0,79,0.00,,,0.00,Wunderground v.1.15,2014-01-21 01:31:00,
2014-01-20 20:33:00,16.3,10.6,29.84,SSE,167,1.0,3.0,78,0.00,,,0.00,Wunderground v.1.15,2014-01-21 01:33:00,
2014-01-20 20:35:00,16.2,10.5,29.84,South,184,0.0,4.0,78,0.00,,,0.00,Wunderground v.1.15,2014-01-21 01:35:00,
2014-01-20 20:36:00,16.0,10.3,29.84,SSW,198,1.0,5.0,78,0.00,,,0.00,Wunderground v.1.15,2014-01-21 01:36:00,
2014-01-20 20:38:00,15.9,10.0,29.85,South,183,1.0,5.0,77,0.00,,,0.00,Wunderground v.1.15,2014-01-21 01:38:00,
2014-01-20 20:40:00,15.6,9.7,29.85,South,183,4.0,6.0,77,0.00,,,0.00,Wunderground v.1.15,2014-01-21 01:40:00,
2014-01-20 20:41:00,15.5,9.6,29.85,South,183,1.0,6.0,77,0.00,,,0.00,Wunderground v.1.15,2014-01-21 01:41:00,
2014-01-20 20:43:00,15.4,9.5,29.85,SW,233,1.0,6.0,77,0.00,,,0.00,Wunderground v.1.15,2014-01-21 01:43:00,
2014-01-20 20:44:00,15.2,9.3,29.85,South,183,1.0,6.0,77,0.00,,,0.00,Wunderground v.1.15,2014-01-21 01:44:00,
2014-01-20 20:45:00,15.2,9.6,29.85,WSW,248,1.0,6.0,78,0.00,,,0.00,Wunderground v.1.15,2014-01-21 01:45:00,
2014-01-20 20:46:00,15.1,9.5,29.85,South,183,2.0,6.0,78,0.00,,,0.00,Wunderground v.1.15,2014-01-21 01:46:00,
2014-01-20 20:47:00,15.1,9.5,29.85,South,183,1.0,6.0,78,0.00,,,0.00,Wunderground v.1.15,2014-01-21 01:47:00,
2014-01-20 20:48:00,15.0,9.4,29.86,South,181,1.0,6.0,78,0.00,,,0.00,Wunderground v.1.15,2014-01-21 01:48:00,
2014-01-20 20:49:00,14.9,9.3,29.86,South,181,1.0,6.0,78,0.00,,,0.00,Wunderground v.1.15,2014-01-21 01:49:00,
2014-01-20 20:50:00,14.8,9.2,29.85,South,181,1.0,4.0,78,0.00,,,0.00,Wunderground v.1.15,2014-01-21 01:50:00,
2014-01-20 20:52:00,14.7,9.1,29.86,WSW,242,2.0,4.0,78,0.00,,,0.00,Wunderground v.1.15,2014-01-21 01:52:00,
2014-01-20 20:53:00,14.6,8.7,29.86,South,181,1.0,4.0,77,0.00,,,0.00,Wunderground v.1.15,2014-01-21 01:53:00,
2014-01-20 20:54:00,14.5,8.6,29.86,SW,228,1.0,4.0,77,0.00,,,0.00,Wunderground v.1.15,2014-01-21 01:54:00,
2014-01-20 20:55:00,14.4,8.5,29.86,SW,236,1.0,4.0,77,0.00,,,0.00,Wunderground v.1.15,2014-01-21 01:55:00,
2014-01-20 20:57:00,14.3,8.4,29.87,SW,222,1.0,4.0,77,0.00,,,0.00,Wunderground v.1.15,2014-01-21 01:57:00,
2014-01-20 20:58:00,14.2,8.3,29.86,WSW,254,2.0,5.0,77,0.00,,,0.00,Wunderground v.1.15,2014-01-21 01:58:00,
2014-01-20 20:59:00,14.1,8.2,29.87,SE,136,1.0,5.0,77,0.00,,,0.00,Wunderground v.1.15,2014-01-21 01:59:00,
2014-01-20 21:01:00,13.9,8.0,29.87,NNW,330,1.0,3.0,77,0.00,,,0.00,Wunderground v.1.15,2014-01-21 02:01:00,
2014-01-20 21:02:00,13.9,7.7,29.87,SSE,167,1.0,3.0,76,0.00,,,0.00,Wunderground v.1.15,2014-01-21 02:02:00,
2014-01-20 21:03:00,13.8,7.6,29.87,East,87,2.0,3.0,76,0.00,,,0.00,Wunderground v.1.15,2014-01-21 02:03:00,
2014-01-20 21:04:00,13.7,7.5,29.87,SSW,210,2.0,3.0,76,0.00,,,0.00,Wunderground v.1.15,2014-01-21 02:04:00,
2014-01-20 21:07:00,13.4,7.2,29.87,South,183,0.0,5.0,76,0.00,,,0.00,Wunderground v.1.15,2014-01-21 02:07:00,
2014-01-20 21:08:00,13.3,7.1,29.87,South,182,2.0,5.0,76,0.00,,,0.00,Wunderground v.1.15,2014-01-21 02:08:00,
2014-01-20 21:10:00,13.2,7.0,29.87,ENE,75,3.0,5.0,76,0.00,,,0.00,Wunderground v.1.15,2014-01-21 02:10:00,
2014-01-20 21:12:00,12.9,6.8,29.87,SSE,167,1.0,3.0,76,0.00,,,0.00,Wunderground v.1.15,2014-01-21 02:12:00,
2014-01-20 21:13:00,12.9,6.8,29.87,SSE,167,1.0,3.0,76,0.00,,,0.00,Wunderground v.1.15,2014-01-21 02:13:00,
2014-01-20 21:14:00,12.8,6.7,29.87,SSE,167,1.0,6.0,76,0.00,,,0.00,Wunderground v.1.15,2014-01-21 02:14:00,
2014-01-20 21:15:00,12.7,6.6,29.87,SSE,167,2.0,6.0,76,0.00,,,0.00,Wunderground v.1.15,2014-01-21 02:15:00,
2014-01-20 21:17:00,12.5,6.4,29.87,SSE,167,2.0,6.0,76,0.00,,,0.00,Wunderground v.1.15,2014-01-21 02:17:00,
2014-01-20 21:18:00,12.5,6.4,29.87,SE,135,0.0,6.0,76,0.00,,,0.00,Wunderground v.1.15,2014-01-21 02:18:00,
2014-01-20 21:19:00,12.4,6.3,29.87,SSE,153,1.0,6.0,76,0.00,,,0.00,Wunderground v.1.15,2014-01-21 02:19:00,
2014-01-20 21:20:00,12.4,6.3,29.87,SSE,167,1.0,6.0,76,0.00,,,0.00,Wunderground v.1.15,2014-01-21 02:20:00,
2014-01-20 21:22:00,12.2,6.1,29.87,SSE,149,1.0,5.0,76,0.00,,,0.00,Wunderground v.1.15,2014-01-21 02:22:00,
2014-01-20 21:23:00,12.2,6.1,29.87,SSE,167,2.0,5.0,76,0.00,,,0.00,Wunderground v.1.15,2014-01-21 02:23:00,
2014-01-20 21:24:00,12.1,6.0,29.87,SSE,167,1.0,5.0,76,0.00,,,0.00,Wunderground v.1.15,2014-01-21 02:24:00,
2014-01-20 21:25:00,12.1,6.3,29.87,SE,136,1.0,5.0,77,0.00,,,0.00,Wunderground v.1.15,2014-01-21 02:25:00,
2014-01-20 21:27:00,11.9,6.1,29.88,SSE,167,2.0,6.0,77,0.00,,,0.00,Wunderground v.1.15,2014-01-21 02:27:00,
2014-01-20 21:28:00,11.9,6.1,29.88,SE,124,4.0,6.0,77,0.00,,,0.00,Wunderground v.1.15,2014-01-21 02:28:00,
2014-01-20 21:29:00,11.8,5.7,29.88,SE,124,1.0,6.0,76,0.00,,,0.00,Wunderground v.1.15,2014-01-21 02:29:00,
2014-01-20 21:30:00,11.8,5.7,29.88,SE,131,1.0,6.0,76,0.00,,,0.00,Wunderground v.1.15,2014-01-21 02:30:00,
2014-01-20 21:32:00,11.6,5.8,29.88,East,83,2.0,2.0,77,0.00,,,0.00,Wunderground v.1.15,2014-01-21 02:32:00,
2014-01-20 21:33:00,11.6,5.8,29.88,East,96,1.0,2.0,77,0.00,,,0.00,Wunderground v.1.15,2014-01-21 02:33:00,
2014-01-20 21:34:00,11.6,5.8,29.88,SSE,160,2.0,2.0,77,0.00,,,0.00,Wunderground v.1.15,2014-01-21 02:34:00,
2014-01-20 21:35:00,11.5,5.7,29.88,South,183,1.0,3.0,77,0.00,,,0.00,Wunderground v.1.15,2014-01-21 02:35:00,
2014-01-20 21:37:00,11.4,5.6,29.87,SE,133,1.0,3.0,77,0.00,,,0.00,Wunderground v.1.15,2014-01-21 02:37:00,
2014-01-20 21:39:00,11.3,5.5,29.87,SSE,167,1.0,6.0,77,0.00,,,0.00,Wunderground v.1.15,2014-01-21 02:39:00,
2014-01-20 21:40:00,11.2,5.4,29.87,East,81,2.0,6.0,77,0.00,,,0.00,Wunderground v.1.15,2014-01-21 02:40:00,
2014-01-20 21:43:00,11.0,5.2,29.88,SSE,162,1.0,5.0,77,0.00,,,0.00,Wunderground v.1.15,2014-01-21 02:43:00,
2014-01-20 21:44:00,11.1,5.3,29.88,SSE,150,0.0,5.0,77,0.00,,,0.00,Wunderground v.1.15,2014-01-21 02:44:00,
2014-01-20 21:45:00,11.0,5.2,29.88,East,82,3.0,5.0,77,0.00,,,0.00,Wunderground v.1.15,2014-01-21 02:45:00,
2014-01-20 21:48:00,10.8,5.0,29.88,WNW,292,0.0,7.0,77,0.00,,,0.00,Wunderground v.1.15,2014-01-21 02:48:00,
2014-01-20 21:49:00,10.8,5.0,29.88,South,183,2.0,7.0,77,0.00,,,0.00,Wunderground v.1.15,2014-01-21 02:49:00,
2014-01-20 21:50:00,10.8,5.0,29.88,South,188,2.0,7.0,77,0.00,,,0.00,Wunderground v.1.15,2014-01-21 02:50:00,
2014-01-20 21:54:00,10.6,4.5,29.88,South,186,1.0,2.0,76,0.00,,,0.00,Wunderground v.1.15,2014-01-21 02:54:00,
2014-01-20 21:55:00,10.5,4.4,29.88,SSW,195,0.0,6.0,76,0.00,,,0.00,Wunderground v.1.15,2014-01-21 02:55:00,
2014-01-20 21:56:00,10.6,4.5,29.88,South,183,1.0,6.0,76,0.00,,,0.00,Wunderground v.1.15,2014-01-21 02:56:00,
2014-01-20 21:59:00,10.4,4.3,29.89,SSW,211,3.0,6.0,76,0.00,,,0.00,Wunderground v.1.15,2014-01-21 02:59:00,
2014-01-20 22:01:00,10.4,4.3,29.89,WSW,237,0.0,3.0,76,0.00,,,0.00,Wunderground v.1.15,2014-01-21 03:01:00,
2014-01-20 22:02:00,10.4,4.3,29.90,South,190,1.0,3.0,76,0.00,,,0.00,Wunderground v.1.15,2014-01-21 03:02:00,
2014-01-20 22:04:00,10.3,4.2,29.90,South,183,3.0,5.0,76,0.00,,,0.00,Wunderground v.1.15,2014-01-21 03:04:00,
2014-01-20 22:05:00,10.2,4.4,29.90,South,184,2.0,5.0,77,0.00,,,0.00,Wunderground v.1.15,2014-01-21 03:05:00,
2014-01-20 22:06:00,10.2,4.4,29.90,SW,218,2.0,5.0,77,0.00,,,0.00,Wunderground v.1.15,2014-01-21 03:06:00,
2014-01-20 22:07:00,10.2,4.4,29.90,SW,214,1.0,5.0,77,0.00,,,0.00,Wunderground v.1.15,2014-01-21 03:07:00,
2014-01-20 22:09:00,10.2,4.1,29.90,SW,214,3.0,5.0,76,0.00,,,0.00,Wunderground v.1.15,2014-01-21 03:09:00,
2014-01-20 22:10:00,10.1,4.0,29.91,SSW,205,1.0,5.0,76,0.00,,,0.00,Wunderground v.1.15,2014-01-21 03:10:00,
2014-01-20 22:12:00,10.1,4.0,29.91,SW,233,1.0,6.0,76,0.00,,,0.00,Wunderground v.1.15,2014-01-21 03:12:00,
2014-01-20 22:13:00,10.1,4.0,29.92,South,183,1.0,6.0,76,0.00,,,0.00,Wunderground v.1.15,2014-01-21 03:13:00,
2014-01-20 22:14:00,10.1,4.0,29.91,SW,222,1.0,6.0,76,0.00,,,0.00,Wunderground v.1.15,2014-01-21 03:14:00,
2014-01-20 22:16:00,10.0,4.2,29.92,South,183,0.0,6.0,77,0.00,,,0.00,Wunderground v.1.15,2014-01-21 03:16:00,
2014-01-20 22:17:00,10.0,4.2,29.92,South,183,0.0,6.0,77,0.00,,,0.00,Wunderground v.1.15,2014-01-21 03:17:00,
2014-01-20 22:18:00,9.9,4.1,29.92,South,183,0.0,6.0,77,0.00,,,0.00,Wunderground v.1.15,2014-01-21 03:18:00,
2014-01-20 22:19:00,9.9,4.1,29.92,WSW,252,1.0,6.0,77,0.00,,,0.00,Wunderground v.1.15,2014-01-21 03:19:00,
2014-01-20 22:20:00,9.9,4.1,29.92,WSW,252,2.0,2.0,77,0.00,,,0.00,Wunderground v.1.15,2014-01-21 03:20:00,
2014-01-20 22:21:00,9.9,4.1,29.92,WSW,239,1.0,2.0,77,0.00,,,0.00,Wunderground v.1.15,2014-01-21 03:21:00,
2014-01-20 22:22:00,9.9,4.1,29.92,WSW,257,2.0,2.0,77,0.00,,,0.00,Wunderground v.1.15,2014-01-21 03:22:00,
2014-01-20 22:24:00,9.8,4.0,29.92,SSW,211,4.0,6.0,77,0.00,,,0.00,Wunderground v.1.15,2014-01-21 03:24:00,
2014-01-20 22:25:00,9.8,4.0,29.92,West,262,1.0,6.0,77,0.00,,,0.00,Wunderground v.1.15,2014-01-21 03:25:00,
2014-01-20 22:26:00,9.8,4.0,29.92,West,264,1.0,6.0,77,0.00,,,0.00,Wunderground v.1.15,2014-01-21 03:26:00,
2014-01-20 22:27:00,9.8,4.0,29.92,WSW,239,2.0,6.0,77,0.00,,,0.00,Wunderground v.1.15,2014-01-21 03:27:00,
2014-01-20 22:28:00,9.8,4.0,29.92,WSW,239,0.0,6.0,77,0.00,,,0.00,Wunderground v.1.15,2014-01-21 03:28:00,
2014-01-20 22:29:00,9.8,4.0,29.92,SW,228,1.0,6.0,77,0.00,,,0.00,Wunderground v.1.15,2014-01-21 03:29:00,
2014-01-20 22:30:00,9.8,4.0,29.92,SW,232,1.0,1.0,77,0.00,,,0.00,Wunderground v.1.15,2014-01-21 03:30:00,
2014-01-20 22:31:00,9.7,3.9,29.92,SSW,195,0.0,1.0,77,0.00,,,0.00,Wunderground v.1.15,2014-01-21 03:31:00,
2014-01-20 22:32:00,9.7,4.2,29.92,SSW,195,0.0,1.0,78,0.00,,,0.00,Wunderground v.1.15,2014-01-21 03:32:00,
2014-01-20 22:33:00,9.6,4.1,29.92,SSW,207,1.0,1.0,78,0.00,,,0.00,Wunderground v.1.15,2014-01-21 03:33:00,
2014-01-20 22:34:00,9.6,4.1,29.92,SSW,211,1.0,1.0,78,0.00,,,0.00,Wunderground v.1.15,2014-01-21 03:34:00,
2014-01-20 22:35:00,9.6,4.1,29.92,SW,215,1.0,1.0,78,0.00,,,0.00,Wunderground v.1.15,2014-01-21 03:35:00,
2014-01-20 22:37:00,9.4,3.9,29.92,WSW,241,1.0,3.0,78,0.00,,,0.00,Wunderground v.1.15,2014-01-21 03:37:00,
2014-01-20 22:38:00,9.4,3.9,29.92,WSW,242,0.0,3.0,78,0.00,,,0.00,Wunderground v.1.15,2014-01-21 03:38:00,
2014-01-20 22:39:00,9.4,3.9,29.92,South,183,2.0,3.0,78,0.00,,,0.00,Wunderground v.1.15,2014-01-21 03:39:00,
2014-01-20 22:40:00,9.4,3.9,29.92,South,183,1.0,2.0,78,0.00,,,0.00,Wunderground v.1.15,2014-01-21 03:40:00,
2014-01-20 22:42:00,9.4,3.9,29.92,WSW,252,5.0,5.0,78,0.00,,,0.00,Wunderground v.1.15,2014-01-21 03:42:00,
2014-01-20 22:43:00,9.3,3.8,29.92,WSW,249,2.0,5.0,78,0.00,,,0.00,Wunderground v.1.15,2014-01-21 03:43:00,
2014-01-20 22:45:00,9.3,3.8,29.92,SW,232,0.0,5.0,78,0.00,,,0.00,Wunderground v.1.15,2014-01-21 03:45:00,
2014-01-20 22:48:00,9.2,3.7,29.92,WSW,237,1.0,5.0,78,0.00,,,0.00,Wunderground v.1.15,2014-01-21 03:48:00,
2014-01-20 22:49:00,9.2,4.0,29.92,West,274,1.0,5.0,79,0.00,,,0.00,Wunderground v.1.15,2014-01-21 03:49:00,
2014-01-20 22:50:00,9.2,3.7,29.92,SW,231,2.0,2.0,78,0.00,,,0.00,Wunderground v.1.15,2014-01-21 03:50:00,
2014-01-20 22:53:00,9.1,3.6,29.92,SW,232,0.0,2.0,78,0.00,,,0.00,Wunderground v.1.15,2014-01-21 03:53:00,
2014-01-20 22:54:00,9.1,3.9,29.92,SW,222,1.0,2.0,79,0.00,,,0.00,Wunderground v.1.15,2014-01-21 03:54:00,
2014-01-20 22:55:00,9.0,3.8,29.92,West,267,1.0,2.0,79,0.00,,,0.00,Wunderground v.1.15,2014-01-21 03:55:00,
2014-01-20 22:58:00,8.9,3.7,29.92,South,188,0.0,2.0,79,0.00,,,0.00,Wunderground v.1.15,2014-01-21 03:58:00,
2014-01-20 22:59:00,8.9,3.7,29.92,SSW,203,0.0,2.0,79,0.00,,,0.00,Wunderground v.1.15,2014-01-21 03:59:00,
2014-01-20 23:01:00,8.9,3.7,29.93,SSW,204,0.0,1.0,79,0.00,,,0.00,Wunderground v.1.15,2014-01-21 04:01:00,
2014-01-20 23:02:00,8.8,3.6,29.93,South,189,1.0,1.0,79,0.00,,,0.00,Wunderground v.1.15,2014-01-21 04:02:00,
2014-01-20 23:03:00,8.8,3.6,29.93,WSW,256,1.0,2.0,79,0.00,,,0.00,Wunderground v.1.15,2014-01-21 04:03:00,
2014-01-20 23:05:00,8.7,3.5,29.93,SW,218,1.0,2.0,79,0.00,,,0.00,Wunderground v.1.15,2014-01-21 04:05:00,
2014-01-20 23:06:00,8.7,3.5,29.92,South,183,0.0,2.0,79,0.00,,,0.00,Wunderground v.1.15,2014-01-21 04:06:00,
2014-01-20 23:07:00,8.7,3.5,29.92,South,183,0.0,2.0,79,0.00,,,0.00,Wunderground v.1.15,2014-01-21 04:07:00,
2014-01-20 23:08:00,8.6,3.4,29.92,WSW,249,1.0,2.0,79,0.00,,,0.00,Wunderground v.1.15,2014-01-21 04:08:00,
2014-01-20 23:10:00,8.6,3.7,29.92,SW,222,1.0,1.0,80,0.00,,,0.00,Wunderground v.1.15,2014-01-21 04:10:00,
2014-01-20 23:11:00,8.5,3.6,29.92,South,184,0.0,1.0,80,0.00,,,0.00,Wunderground v.1.15,2014-01-21 04:11:00,
2014-01-20 23:12:00,8.5,3.6,29.92,SW,219,1.0,1.0,80,0.00,,,0.00,Wunderground v.1.15,2014-01-21 04:12:00,
2014-01-20 23:13:00,8.5,3.6,29.92,South,183,0.0,4.0,80,0.00,,,0.00,Wunderground v.1.15,2014-01-21 04:13:00,
2014-01-20 23:15:00,8.5,3.6,29.92,South,183,2.0,4.0,80,0.00,,,0.00,Wunderground v.1.15,2014-01-21 04:15:00,
2014-01-20 23:16:00,8.4,3.5,29.92,SSW,211,0.0,4.0,80,0.00,,,0.00,Wunderground v.1.15,2014-01-21 04:16:00,
2014-01-20 23:17:00,8.4,3.5,29.92,South,183,0.0,4.0,80,0.00,,,0.00,Wunderground v.1.15,2014-01-21 04:17:00,
2014-01-20 23:18:00,8.4,3.5,29.92,WSW,246,1.0,4.0,80,0.00,,,0.00,Wunderground v.1.15,2014-01-21 04:18:00,
2014-01-20 23:19:00,8.3,3.4,29.92,WSW,244,0.0,4.0,80,0.00,,,0.00,Wunderground v.1.15,2014-01-21 04:19:00,
2014-01-20 23:20:00,8.3,3.4,29.92,South,183,3.0,3.0,80,0.00,,,0.00,Wunderground v.1.15,2014-01-21 04:20:00,
2014-01-20 23:21:00,8.3,3.4,29.92,South,183,2.0,5.0,80,0.00,,,0.00,Wunderground v.1.15,2014-01-21 04:21:00,
2014-01-20 23:22:00,8.3,3.4,29.92,South,183,1.0,5.0,80,0.00,,,0.00,Wunderground v.1.15,2014-01-21 04:22:00,
2014-01-20 23:23:00,8.3,3.4,29.92,South,183,0.0,5.0,80,0.00,,,0.00,Wunderground v.1.15,2014-01-21 04:23:00,
2014-01-20 23:24:00,8.3,3.4,29.92,SSW,200,0.0,5.0,80,0.00,,,0.00,Wunderground v.1.15,2014-01-21 04:24:00,
2014-01-20 23:25:00,8.3,3.4,29.92,South,183,0.0,5.0,80,0.00,,,0.00,Wunderground v.1.15,2014-01-21 04:25:00,
2014-01-20 23:26:00,8.2,3.3,29.93,South,183,0.0,5.0,80,0.00,,,0.00,Wunderground v.1.15,2014-01-21 04:26:00,
2014-01-20 23:27:00,8.2,3.3,29.93,South,183,2.0,5.0,80,0.00,,,0.00,Wunderground v.1.15,2014-01-21 04:27:00,
2014-01-20 23:28:00,8.2,3.3,29.93,South,183,1.0,5.0,80,0.00,,,0.00,Wunderground v.1.15,2014-01-21 04:28:00,
2014-01-20 23:29:00,8.2,3.3,29.93,South,183,1.0,5.0,80,0.00,,,0.00,Wunderground v.1.15,2014-01-21 04:29:00,
2014-01-20 23:30:00,8.3,3.4,29.93,South,183,0.0,1.0,80,0.00,,,0.00,Wunderground v.1.15,2014-01-21 04:30:00,
2014-01-20 23:31:00,8.2,3.3,29.93,South,183,0.0,1.0,80,0.00,,,0.00,Wunderground v.1.15,2014-01-21 04:31:00,
2014-01-20 23:32:00,8.2,3.3,29.93,South,184,2.0,3.0,80,0.00,,,0.00,Wunderground v.1.15,2014-01-21 04:32:00,
2014-01-20 23:33:00,8.2,3.3,29.93,South,183,0.0,3.0,80,0.00,,,0.00,Wunderground v.1.15,2014-01-21 04:33:00,
2014-01-20 23:34:00,8.2,3.3,29.93,South,183,0.0,3.0,80,0.00,,,0.00,Wunderground v.1.15,2014-01-21 04:34:00,
2014-01-20 23:35:00,8.1,3.2,29.93,South,183,0.0,3.0,80,0.00,,,0.00,Wunderground v.1.15,2014-01-21 04:35:00,
2014-01-20 23:36:00,8.1,3.2,29.93,South,183,0.0,3.0,80,0.00,,,0.00,Wunderground v.1.15,2014-01-21 04:36:00,
2014-01-20 23:37:00,8.1,3.2,29.93,South,183,2.0,3.0,80,0.00,,,0.00,Wunderground v.1.15,2014-01-21 04:37:00,
2014-01-20 23:38:00,8.1,3.2,29.93,South,184,2.0,3.0,80,0.00,,,0.00,Wunderground v.1.15,2014-01-21 04:38:00,
2014-01-20 23:39:00,8.1,3.2,29.93,South,183,0.0,3.0,80,0.00,,,0.00,Wunderground v.1.15,2014-01-21 04:39:00,
2014-01-20 23:40:00,8.1,3.2,29.93,South,183,0.0,1.0,80,0.00,,,0.00,Wunderground v.1.15,2014-01-21 04:40:00,
2014-01-20 23:41:00,8.0,3.1,29.93,South,183,3.0,3.0,80,0.00,,,0.00,Wunderground v.1.15,2014-01-21 04:41:00,
2014-01-20 23:42:00,8.0,3.1,29.93,South,183,4.0,4.0,80,0.00,,,0.00,Wunderground v.1.15,2014-01-21 04:42:00,
2014-01-20 23:43:00,8.0,3.1,29.93,South,183,1.0,4.0,80,0.00,,,0.00,Wunderground v.1.15,2014-01-21 04:43:00,
2014-01-20 23:44:00,8.0,3.1,29.93,South,183,0.0,4.0,80,0.00,,,0.00,Wunderground v.1.15,2014-01-21 04:44:00,
2014-01-20 23:45:00,8.0,3.1,29.93,SSW,194,3.0,5.0,80,0.00,,,0.00,Wunderground v.1.15,2014-01-21 04:45:00,
2014-01-20 23:47:00,7.9,3.0,29.93,WSW,243,0.0,5.0,80,0.00,,,0.00,Wunderground v.1.15,2014-01-21 04:47:00,
2014-01-20 23:48:00,7.8,2.9,29.93,SSE,167,0.0,5.0,80,0.00,,,0.00,Wunderground v.1.15,2014-01-21 04:48:00,
2014-01-20 23:49:00,7.9,3.0,29.93,East,94,2.0,5.0,80,0.00,,,0.00,Wunderground v.1.15,2014-01-21 04:49:00,
2014-01-20 23:50:00,7.8,3.2,29.93,SSE,160,0.0,3.0,81,0.00,,,0.00,Wunderground v.1.15,2014-01-21 04:50:00,
2014-01-20 23:52:00,7.8,2.9,29.94,SSE,167,1.0,3.0,80,0.00,,,0.00,Wunderground v.1.15,2014-01-21 04:52:00,
2014-01-20 23:54:00,7.8,2.9,29.94,SSE,150,1.0,3.0,80,0.00,,,0.00,Wunderground v.1.15,2014-01-21 04:54:00,
2014-01-20 23:55:00,7.8,2.9,29.94,SSE,167,1.0,3.0,80,0.00,,,0.00,Wunderground v.1.15,2014-01-21 04:55:00,
2014-01-20 23:57:00,7.8,2.9,29.94,East,79,2.0,3.0,80,0.00,,,0.00,Wunderground v.1.15,2014-01-21 04:57:00,
2014-01-20 23:58:00,7.7,2.8,29.94,NNE,30,4.0,7.0,80,0.00,,,0.00,Wunderground v.1.15,2014-01-21 04:58:00,
2014-01-20 23:59:00,7.7,2.8,29.94,SSE,167,0.0,7.0,80,0.00,,,0.00,Wunderground v.1.15,2014-01-21 04:59:00,